| time (UTC) | temp F | wind direction | speed knots | gust knots | rain 1hr in | rain 24hr in | rain mn in | humidity % | barometer mb |
| 20260906220503 | 89 | 36 | 3.5 | 4.3 | 0.00 | 0.00 | 0.00 | 49 | 1005.6 |
| 20260906220403 | 88 | 31 | 0.9 | 7.0 | 0.00 | 0.00 | 0.00 | 49 | 1005.6 |
| 20260906220303 | 88 | 31 | 0.9 | 7.0 | 0.00 | 0.00 | 0.00 | 49 | 1005.6 |
| 20260906220203 | 87 | 24 | 0.9 | 7.0 | 0.00 | 0.00 | 0.00 | 51 | 1005.6 |
| 20260906220103 | 88 | 24 | 0.9 | 7.0 | 0.00 | 0.00 | 0.00 | 51 | 1005.6 |
| 20260906215903 | 88 | 34 | 2.6 | 7.0 | 0.00 | 0.00 | 0.00 | 49 | 1005.6 |
| 20260906215803 | 89 | 42 | 3.5 | 7.0 | 0.00 | 0.00 | 0.00 | 49 | 1005.6 |
| 20260906215703 | 89 | 43 | 3.5 | 7.0 | 0.00 | 0.00 | 0.00 | 49 | 1005.6 |
| 20260906215603 | 89 | 45 | 0.0 | 7.0 | 0.00 | 0.00 | 0.00 | 49 | 1005.6 |
| 20260906215403 | 89 | 52 | 4.3 | 7.0 | 0.00 | 0.00 | 0.00 | 49 | 1005.6 |
| 20260906215306 | 90 | 55 | 5.2 | 6.1 | 0.00 | 0.00 | 0.00 | 49 | 1005.6 |
| 20260906215103 | 89 | 82 | 1.7 | 5.2 | 0.00 | 0.00 | 0.00 | 49 | 1005.6 |
| 20260906214903 | 89 | 56 | 2.6 | 4.3 | 0.00 | 0.00 | 0.00 | 51 | 1005.6 |
| 20260906214803 | 89 | 30 | 0.0 | 4.3 | 0.00 | 0.00 | 0.00 | 51 | 1005.6 |
| 20260906214603 | 88 | 15 | 0.0 | 4.3 | 0.00 | 0.00 | 0.00 | 51 | 1005.6 |
| 20260906214402 | 87 | 19 | 0.0 | 6.1 | 0.00 | 0.00 | 0.00 | 51 | 1005.6 |
| 20260906214303 | 88 | 20 | 4.3 | 6.1 | 0.00 | 0.00 | 0.00 | 51 | 1005.6 |
| 20260906214202 | 88 | 20 | 4.3 | 6.1 | 0.00 | 0.00 | 0.00 | 49 | 1005.6 |
| 20260906214103 | 88 | 20 | 4.3 | 6.1 | 0.00 | 0.00 | 0.00 | 49 | 1005.6 |
| 20260906214003 | 89 | 21 | 4.3 | 6.1 | 0.00 | 0.00 | 0.00 | 49 | 1005.6 |
| 20260906213902 | 89 | 22 | 4.3 | 6.1 | 0.00 | 0.00 | 0.00 | 49 | 1005.6 |
| 20260906213803 | 89 | 24 | 0.9 | 6.1 | 0.00 | 0.00 | 0.00 | 49 | 1005.6 |
| 20260906213703 | 89 | 30 | 4.3 | 6.1 | 0.00 | 0.00 | 0.00 | 49 | 1005.6 |
| 20260906213603 | 90 | 33 | 4.3 | 6.1 | 0.00 | 0.00 | 0.00 | 49 | 1005.6 |
| 20260906213503 | 90 | 34 | 3.5 | 6.1 | 0.00 | 0.00 | 0.00 | 49 | 1005.6 |
| 20260906213402 | 89 | 34 | 2.6 | 4.3 | 0.00 | 0.00 | 0.00 | 51 | 1005.6 |
| 20260906213303 | 89 | 45 | 2.6 | 4.3 | 0.00 | 0.00 | 0.00 | 51 | 1005.6 |
| 20260906213103 | 88 | 46 | 0.0 | 3.5 | 0.00 | 0.00 | 0.00 | 49 | 1005.6 |
| 20260906213003 | 89 | 42 | 2.6 | 4.3 | 0.00 | 0.00 | 0.00 | 51 | 1005.6 |
| 20260906212903 | 89 | 43 | 2.6 | 6.1 | 0.00 | 0.00 | 0.00 | 51 | 1005.6 |
| 20260906212803 | 89 | 43 | 2.6 | 6.1 | 0.00 | 0.00 | 0.00 | 51 | 1005.6 |
| 20260906212703 | 89 | 40 | 0.0 | 6.1 | 0.00 | 0.00 | 0.00 | 49 | 1005.6 |
| 20260906212603 | 89 | 37 | 0.0 | 6.1 | 0.00 | 0.00 | 0.00 | 49 | 1005.6 |
| 20260906212503 | 89 | 34 | 0.0 | 6.1 | 0.00 | 0.00 | 0.00 | 51 | 1005.6 |
| 20260906212306 | 88 | 29 | 2.6 | 6.1 | 0.00 | 0.00 | 0.00 | 51 | 1006.7 |
| 20260906212203 | 88 | 26 | 2.6 | 6.1 | 0.00 | 0.00 | 0.00 | 51 | 1006.7 |
| 20260906211903 | 88 | 12 | 4.3 | 6.1 | 0.00 | 0.00 | 0.00 | 51 | 1006.7 |
| 20260906211703 | 89 | 2 | 3.5 | 7.0 | 0.00 | 0.00 | 0.00 | 51 | 1006.7 |
| 20260906211603 | 89 | 359 | 1.7 | 7.0 | 0.00 | 0.00 | 0.00 | 51 | 1006.7 |
| 20260906211503 | 89 | 355 | 1.7 | 10.4 | 0.00 | 0.00 | 0.00 | 51 | 1006.7 |
| 20260906211403 | 89 | 352 | 3.5 | 10.4 | 0.00 | 0.00 | 0.00 | 51 | 1006.7 |
| 20260906211203 | 89 | 343 | 2.6 | 10.4 | 0.00 | 0.00 | 0.00 | 51 | 1006.7 |
| 20260906211103 | 89 | 339 | 4.3 | 10.4 | 0.00 | 0.00 | 0.00 | 51 | 1006.7 |
| 20260906211003 | 89 | 336 | 4.3 | 10.4 | 0.00 | 0.00 | 0.00 | 51 | 1006.7 |
| 20260906210903 | 89 | 337 | 5.2 | 10.4 | 0.00 | 0.00 | 0.00 | 51 | 1006.7 |
| 20260906210802 | 89 | 332 | 5.2 | 10.4 | 0.00 | 0.00 | 0.00 | 51 | 1006.7 |
| 20260906210703 | 89 | 333 | 4.3 | 11.3 | 0.00 | 0.00 | 0.00 | 51 | 1006.7 |
| 20260906210603 | 89 | 330 | 2.6 | 11.3 | 0.00 | 0.00 | 0.00 | 51 | 1006.7 |
| 20260906210403 | 89 | 334 | 3.5 | 11.3 | 0.00 | 0.00 | 0.00 | 51 | 1006.7 |
| 20260906210303 | 89 | 334 | 3.5 | 11.3 | 0.00 | 0.00 | 0.00 | 51 | 1006.7 |
| 20260906210103 | 89 | 333 | 3.5 | 11.3 | 0.00 | 0.00 | 0.00 | 51 | 1006.7 |
| 20260906205903 | 89 | 331 | 7.0 | 11.3 | 0.00 | 0.00 | 0.00 | 51 | 1006.7 |
| 20260906205703 | 89 | 335 | 5.2 | 8.7 | 0.00 | 0.00 | 0.00 | 52 | 1006.7 |
| 20260906205602 | 89 | 339 | 5.2 | 8.7 | 0.00 | 0.00 | 0.00 | 52 | 1006.7 |
| 20260906205503 | 89 | 343 | 5.2 | 8.7 | 0.00 | 0.00 | 0.00 | 52 | 1006.7 |
| 20260906205403 | 89 | 347 | 5.2 | 8.7 | 0.00 | 0.00 | 0.00 | 51 | 1006.7 |
| 20260906205306 | 88 | 351 | 2.6 | 8.7 | 0.00 | 0.00 | 0.00 | 52 | 1006.7 |
| 20260906205203 | 88 | 354 | 3.5 | 8.7 | 0.00 | 0.00 | 0.00 | 52 | 1006.7 |
| 20260906205102 | 87 | 356 | 3.5 | 8.7 | 0.00 | 0.00 | 0.00 | 53 | 1006.7 |
| 20260906205003 | 87 | 1 | 2.6 | 8.7 | 0.00 | 0.00 | 0.00 | 53 | 1006.7 |
| 20260906204903 | 87 | 6 | 3.5 | 8.7 | 0.00 | 0.00 | 0.00 | 53 | 1006.7 |
| 20260906204803 | 87 | 8 | 4.3 | 8.7 | 0.00 | 0.00 | 0.00 | 53 | 1006.7 |
| 20260906204703 | 87 | 9 | 4.3 | 8.7 | 0.00 | 0.00 | 0.00 | 53 | 1006.7 |
| 20260906204603 | 87 | 6 | 5.2 | 8.7 | 0.00 | 0.00 | 0.00 | 53 | 1006.7 |
| 20260906204503 | 87 | 3 | 2.6 | 8.7 | 0.00 | 0.00 | 0.00 | 53 | 1006.7 |
| 20260906204303 | 87 | 2 | 3.5 | 6.1 | 0.00 | 0.00 | 0.00 | 53 | 1006.7 |
| 20260906204203 | 87 | 3 | 3.5 | 6.1 | 0.00 | 0.00 | 0.00 | 54 | 1006.7 |
| 20260906204003 | 86 | 355 | 3.5 | 9.6 | 0.00 | 0.00 | 0.00 | 53 | 1006.7 |
| 20260906203702 | 86 | 342 | 2.6 | 9.6 | 0.00 | 0.00 | 0.00 | 54 | 1007.7 |
| 20260906203603 | 85 | 342 | 3.5 | 9.6 | 0.00 | 0.00 | 0.00 | 54 | 1007.7 |
| 20260906203502 | 86 | 341 | 4.3 | 9.6 | 0.00 | 0.00 | 0.00 | 53 | 1007.7 |
| 20260906203403 | 86 | 339 | 4.3 | 9.6 | 0.00 | 0.00 | 0.00 | 53 | 1007.7 |
| 20260906203303 | 86 | 339 | 4.3 | 9.6 | 0.00 | 0.00 | 0.00 | 52 | 1007.7 |
| 20260906203103 | 87 | 336 | 7.0 | 8.7 | 0.00 | 0.00 | 0.00 | 53 | 1007.7 |
| 20260906202902 | 87 | 333 | 4.3 | 8.7 | 0.00 | 0.00 | 0.00 | 53 | 1007.7 |
| 20260906202803 | 87 | 328 | 2.6 | 7.8 | 0.00 | 0.00 | 0.00 | 53 | 1007.7 |
| 20260906202702 | 88 | 326 | 4.3 | 10.4 | 0.00 | 0.00 | 0.00 | 53 | 1007.7 |
| 20260906202603 | 88 | 325 | 4.3 | 12.2 | 0.00 | 0.00 | 0.00 | 53 | 1007.7 |
| 20260906202403 | 88 | 323 | 6.1 | 12.2 | 0.00 | 0.00 | 0.00 | 53 | 1007.7 |
| 20260906202202 | 87 | 318 | 5.2 | 12.2 | 0.00 | 0.00 | 0.00 | 53 | 1007.7 |
| 20260906202103 | 87 | 319 | 5.2 | 12.2 | 0.00 | 0.00 | 0.00 | 53 | 1007.7 |
| 20260906202003 | 87 | 319 | 5.2 | 12.2 | 0.00 | 0.00 | 0.00 | 53 | 1007.7 |
| 20260906201803 | 87 | 324 | 7.0 | 12.2 | 0.00 | 0.00 | 0.00 | 53 | 1007.7 |
| 20260906201702 | 87 | 328 | 7.0 | 12.2 | 0.00 | 0.00 | 0.00 | 54 | 1007.7 |
| 20260906201502 | 86 | 328 | 4.3 | 8.7 | 0.00 | 0.00 | 0.00 | 54 | 1007.7 |
| 20260906201403 | 86 | 327 | 2.6 | 8.7 | 0.00 | 0.00 | 0.00 | 54 | 1007.7 |
| 20260906201303 | 86 | 330 | 4.3 | 8.7 | 0.00 | 0.00 | 0.00 | 54 | 1007.7 |
| 20260906201203 | 86 | 329 | 4.3 | 8.7 | 0.00 | 0.00 | 0.00 | 54 | 1007.7 |
| 20260906201103 | 86 | 329 | 5.2 | 8.7 | 0.00 | 0.00 | 0.00 | 54 | 1007.7 |
| 20260906201003 | 86 | 331 | 5.2 | 8.7 | 0.00 | 0.00 | 0.00 | 55 | 1007.7 |
| 20260906200903 | 86 | 338 | 5.2 | 8.7 | 0.00 | 0.00 | 0.00 | 55 | 1007.7 |
| 20260906200803 | 86 | 335 | 7.8 | 8.7 | 0.00 | 0.00 | 0.00 | 54 | 1007.7 |
| 20260906200702 | 87 | 332 | 0.0 | 7.0 | 0.00 | 0.00 | 0.00 | 54 | 1007.7 |
| 20260906200603 | 87 | 342 | 0.0 | 6.1 | 0.00 | 0.00 | 0.00 | 54 | 1007.7 |
| 20260906200503 | 87 | 351 | 0.0 | 6.1 | 0.00 | 0.00 | 0.00 | 54 | 1007.7 |
| 20260906200403 | 87 | 352 | 0.0 | 6.1 | 0.00 | 0.00 | 0.00 | 54 | 1007.7 |
| 20260906200003 | 87 | 334 | 2.6 | 8.7 | 0.00 | 0.00 | 0.00 | 55 | 1007.7 |
| 20260906195903 | 87 | 333 | 0.0 | 8.7 | 0.00 | 0.00 | 0.00 | 55 | 1007.7 |
| 20260906195803 | 87 | 334 | 0.0 | 8.7 | 0.00 | 0.00 | 0.00 | 55 | 1007.7 |
| 20260906195703 | 87 | 334 | 1.7 | 8.7 | 0.00 | 0.00 | 0.00 | 55 | 1007.7 |
| 20260906195603 | 87 | 330 | 0.0 | 8.7 | 0.00 | 0.00 | 0.00 | 55 | 1007.7 |
| 20260906195502 | 87 | 329 | 0.0 | 8.7 | 0.00 | 0.00 | 0.00 | 55 | 1007.7 |
| 20260906195403 | 88 | 329 | 4.3 | 8.7 | 0.00 | 0.00 | 0.00 | 55 | 1007.7 |
| 20260906195306 | 87 | 325 | 4.3 | 8.7 | 0.00 | 0.00 | 0.00 | 55 | 1007.7 |
| 20260906195103 | 87 | 331 | 4.3 | 7.0 | 0.00 | 0.00 | 0.00 | 56 | 1007.7 |
| 20260906195003 | 87 | 334 | 4.3 | 7.0 | 0.00 | 0.00 | 0.00 | 56 | 1007.7 |
| 20260906194803 | 87 | 333 | 2.6 | 6.1 | 0.00 | 0.00 | 0.00 | 56 | 1007.7 |
| 20260906194603 | 86 | 336 | 3.5 | 6.1 | 0.00 | 0.00 | 0.00 | 56 | 1007.7 |
| 20260906194503 | 86 | 332 | 1.7 | 6.1 | 0.00 | 0.00 | 0.00 | 58 | 1007.7 |
| 20260906194403 | 85 | 330 | 1.7 | 6.1 | 0.00 | 0.00 | 0.00 | 58 | 1007.7 |
| 20260906194303 | 85 | 334 | 0.0 | 5.2 | 0.00 | 0.00 | 0.00 | 58 | 1007.7 |
| 20260906194103 | 85 | 327 | 1.7 | 5.2 | 0.00 | 0.00 | 0.00 | 58 | 1007.7 |
| 20260906194003 | 85 | 325 | 1.7 | 6.1 | 0.00 | 0.00 | 0.00 | 58 | 1007.7 |
| 20260906193903 | 85 | 324 | 0.0 | 7.0 | 0.00 | 0.00 | 0.00 | 58 | 1007.7 |
| 20260906193803 | 85 | 324 | 3.5 | 7.0 | 0.00 | 0.00 | 0.00 | 58 | 1007.7 |
| 20260906193503 | 85 | 332 | 0.9 | 7.0 | 0.00 | 0.00 | 0.00 | 58 | 1007.7 |
| 20260906193302 | 85 | 342 | 0.9 | 7.0 | 0.00 | 0.00 | 0.00 | 58 | 1007.7 |
| 20260906193203 | 85 | 347 | 2.6 | 7.0 | 0.00 | 0.00 | 0.00 | 58 | 1007.7 |
| 20260906193102 | 85 | 354 | 6.1 | 7.0 | 0.00 | 0.00 | 0.00 | 58 | 1007.7 |
| 20260906193003 | 85 | 4 | 0.9 | 7.0 | 0.00 | 0.00 | 0.00 | 58 | 1007.7 |
| 20260906192903 | 85 | 11 | 0.9 | 7.0 | 0.00 | 0.00 | 0.00 | 59 | 1007.7 |
| 20260906192802 | 85 | 9 | 2.6 | 7.0 | 0.00 | 0.00 | 0.00 | 58 | 1007.7 |
| 20260906192703 | 85 | 9 | 2.6 | 7.0 | 0.00 | 0.00 | 0.00 | 59 | 1007.7 |
| 20260906192602 | 85 | 9 | 3.5 | 7.0 | 0.00 | 0.00 | 0.00 | 59 | 1007.7 |
| 20260906192503 | 85 | 8 | 3.5 | 7.0 | 0.00 | 0.00 | 0.00 | 59 | 1007.7 |
| 20260906192403 | 85 | 7 | 3.5 | 7.0 | 0.00 | 0.00 | 0.00 | 59 | 1007.7 |
| 20260906192306 | 85 | 6 | 3.5 | 7.0 | 0.00 | 0.00 | 0.00 | 58 | 1007.7 |
| 20260906192202 | 85 | 351 | 2.6 | 7.0 | 0.00 | 0.00 | 0.00 | 59 | 1007.7 |
| 20260906192103 | 85 | 346 | 4.3 | 7.0 | 0.00 | 0.00 | 0.00 | 59 | 1007.7 |
| 20260906192003 | 84 | 335 | 4.3 | 7.0 | 0.00 | 0.00 | 0.00 | 59 | 1007.7 |
| 20260906191903 | 84 | 328 | 2.6 | 5.2 | 0.00 | 0.00 | 0.00 | 59 | 1007.7 |
| 20260906191803 | 84 | 331 | 0.9 | 3.5 | 0.00 | 0.00 | 0.00 | 61 | 1007.7 |
| 20260906191703 | 84 | 321 | 0.0 | 3.5 | 0.00 | 0.00 | 0.00 | 61 | 1007.7 |
| 20260906191602 | 83 | 321 | 0.0 | 3.5 | 0.00 | 0.00 | 0.00 | 60 | 1007.7 |
| 20260906191503 | 83 | 328 | 0.0 | 3.5 | 0.00 | 0.00 | 0.00 | 61 | 1007.7 |
| 20260906191303 | 83 | 332 | 2.6 | 8.7 | 0.00 | 0.00 | 0.00 | 60 | 1007.7 |
| 20260906191202 | 83 | 348 | 0.9 | 8.7 | 0.00 | 0.00 | 0.00 | 60 | 1007.7 |
| 20260906190903 | 84 | 5 | 0.0 | 8.7 | 0.00 | 0.00 | 0.00 | 61 | 1007.7 |
| 20260906190803 | 84 | 7 | 0.0 | 8.7 | 0.00 | 0.00 | 0.00 | 60 | 1007.7 |
| 20260906190702 | 84 | 16 | 0.9 | 8.7 | 0.00 | 0.00 | 0.00 | 60 | 1007.7 |
| 20260906190603 | 85 | 18 | 0.9 | 8.7 | 0.00 | 0.00 | 0.00 | 60 | 1007.7 |
| 20260906190502 | 84 | 20 | 5.2 | 8.7 | 0.00 | 0.00 | 0.00 | 60 | 1007.7 |
| 20260906190403 | 84 | 25 | 0.0 | 7.0 | 0.00 | 0.00 | 0.00 | 60 | 1007.7 |
| 20260906190303 | 84 | 26 | 0.0 | 7.0 | 0.00 | 0.00 | 0.00 | 60 | 1007.7 |
| 20260906190203 | 84 | 20 | 0.0 | 7.0 | 0.00 | 0.00 | 0.00 | 61 | 1007.7 |
| 20260906190003 | 84 | 4 | 0.0 | 7.8 | 0.00 | 0.00 | 0.00 | 61 | 1007.7 |
| 20260906185903 | 83 | 357 | 0.0 | 7.8 | 0.00 | 0.00 | 0.00 | 62 | 1007.7 |
| 20260906185803 | 83 | 357 | 3.5 | 7.8 | 0.00 | 0.00 | 0.00 | 61 | 1007.7 |
| 20260906185703 | 83 | 356 | 4.3 | 7.8 | 0.00 | 0.00 | 0.00 | 61 | 1007.7 |
| 20260906185603 | 83 | 351 | 4.3 | 7.8 | 0.00 | 0.00 | 0.00 | 61 | 1007.7 |
| 20260906185503 | 83 | 350 | 4.3 | 7.8 | 0.00 | 0.00 | 0.00 | 61 | 1007.7 |
| 20260906185402 | 83 | 345 | 2.6 | 7.8 | 0.00 | 0.00 | 0.00 | 61 | 1007.7 |
| 20260906185202 | 83 | 337 | 5.2 | 9.6 | 0.00 | 0.00 | 0.00 | 62 | 1007.7 |
| 20260906185103 | 83 | 337 | 7.0 | 9.6 | 0.00 | 0.00 | 0.00 | 61 | 1007.7 |
| 20260906185004 | 83 | 339 | 4.3 | 9.6 | 0.00 | 0.00 | 0.00 | 62 | 1007.7 |
| 20260906184903 | 83 | 340 | 3.5 | 9.6 | 0.00 | 0.00 | 0.00 | 62 | 1007.7 |
| 20260906184603 | 82 | 333 | 1.7 | 9.6 | 0.00 | 0.00 | 0.00 | 63 | 1007.7 |
| 20260906184503 | 82 | 331 | 1.7 | 9.6 | 0.00 | 0.00 | 0.00 | 62 | 1007.7 |
| 20260906184403 | 82 | 330 | 2.6 | 9.6 | 0.00 | 0.00 | 0.00 | 62 | 1007.7 |
| 20260906184303 | 82 | 336 | 7.0 | 9.6 | 0.00 | 0.00 | 0.00 | 62 | 1007.7 |
| 20260906184202 | 82 | 349 | 2.6 | 6.1 | 0.00 | 0.00 | 0.00 | 63 | 1007.7 |
| 20260906184103 | 83 | 4 | 2.6 | 5.2 | 0.00 | 0.00 | 0.00 | 62 | 1007.7 |
| 20260906184004 | 83 | 7 | 3.5 | 4.3 | 0.00 | 0.00 | 0.00 | 62 | 1007.7 |
| 20260906183902 | 83 | 14 | 0.0 | 4.3 | 0.00 | 0.00 | 0.00 | 62 | 1007.7 |
| 20260906183803 | 83 | 17 | 0.0 | 4.3 | 0.00 | 0.00 | 0.00 | 63 | 1007.7 |
| 20260906183702 | 83 | 18 | 0.0 | 4.3 | 0.00 | 0.00 | 0.00 | 62 | 1007.7 |
| 20260906183603 | 83 | 17 | 0.9 | 4.3 | 0.00 | 0.00 | 0.00 | 62 | 1007.7 |
| 20260906183403 | 83 | 4 | 1.7 | 6.1 | 0.00 | 0.00 | 0.00 | 62 | 1007.7 |
| 20260906183203 | 83 | 344 | 1.7 | 6.1 | 0.00 | 0.00 | 0.00 | 62 | 1007.7 |
| 20260906183102 | 83 | 344 | 1.7 | 6.1 | 0.00 | 0.00 | 0.00 | 63 | 1007.7 |
| 20260906183003 | 83 | 335 | 0.9 | 6.1 | 0.00 | 0.00 | 0.00 | 63 | 1007.7 |
| 20260906182903 | 83 | 335 | 0.0 | 6.1 | 0.00 | 0.00 | 0.00 | 63 | 1007.7 |
| 20260906182802 | 83 | 336 | 1.7 | 7.0 | 0.00 | 0.00 | 0.00 | 63 | 1007.7 |
| 20260906182703 | 83 | 335 | 1.7 | 8.7 | 0.00 | 0.00 | 0.00 | 63 | 1007.7 |
| 20260906182503 | 82 | 332 | 1.7 | 8.7 | 0.00 | 0.00 | 0.00 | 63 | 1007.7 |
| 20260906182403 | 82 | 332 | 1.7 | 8.7 | 0.00 | 0.00 | 0.00 | 63 | 1007.7 |
| 20260906182306 | 83 | 337 | 2.6 | 8.7 | 0.00 | 0.00 | 0.00 | 63 | 1007.7 |
| 20260906182203 | 83 | 343 | 0.0 | 8.7 | 0.00 | 0.00 | 0.00 | 63 | 1007.7 |
| 20260906182103 | 83 | 349 | 2.6 | 8.7 | 0.00 | 0.00 | 0.00 | 63 | 1007.7 |
| 20260906182004 | 82 | 356 | 2.6 | 8.7 | 0.00 | 0.00 | 0.00 | 63 | 1007.7 |
| 20260906181903 | 82 | 2 | 5.2 | 8.7 | 0.00 | 0.00 | 0.00 | 63 | 1007.7 |
| 20260906181603 | 82 | 25 | 0.0 | 5.2 | 0.00 | 0.00 | 0.00 | 65 | 1007.7 |
| 20260906181403 | 82 | 29 | 3.5 | 5.2 | 0.00 | 0.00 | 0.00 | 65 | 1007.7 |
| 20260906181303 | 82 | 31 | 3.5 | 5.2 | 0.00 | 0.00 | 0.00 | 65 | 1007.7 |
| 20260906181203 | 82 | 35 | 3.5 | 5.2 | 0.00 | 0.00 | 0.00 | 65 | 1007.7 |
| 20260906181103 | 82 | 38 | 2.6 | 5.2 | 0.00 | 0.00 | 0.00 | 66 | 1007.7 |
| 20260906180803 | 82 | 19 | 3.5 | 7.0 | 0.00 | 0.00 | 0.00 | 65 | 1008.8 |
| 20260906180703 | 82 | 352 | 2.6 | 7.8 | 0.00 | 0.00 | 0.00 | 66 | 1008.8 |
| 20260906180604 | 82 | 347 | 2.6 | 7.8 | 0.00 | 0.00 | 0.00 | 66 | 1008.8 |
| 20260906180403 | 82 | 340 | 0.0 | 7.8 | 0.00 | 0.00 | 0.00 | 66 | 1008.8 |
| 20260906180303 | 82 | 332 | 0.0 | 7.8 | 0.00 | 0.00 | 0.00 | 66 | 1008.8 |
| 20260906180202 | 81 | 332 | 0.0 | 7.8 | 0.00 | 0.00 | 0.00 | 66 | 1008.8 |
| 20260906180004 | 81 | 332 | 3.5 | 7.8 | 0.00 | 0.00 | 0.00 | 66 | 1008.8 |
| 20260906175902 | 81 | 332 | 3.5 | 7.8 | 0.00 | 0.00 | 0.00 | 66 | 1008.8 |
| 20260906175803 | 81 | 338 | 6.1 | 7.8 | 0.00 | 0.00 | 0.00 | 67 | 1008.8 |
| 20260906175703 | 81 | 354 | 0.0 | 6.1 | 0.00 | 0.00 | 0.00 | 67 | 1008.8 |
| 20260906175603 | 81 | 353 | 0.0 | 6.1 | 0.00 | 0.00 | 0.00 | 67 | 1008.8 |
| 20260906175503 | 81 | 347 | 2.6 | 6.1 | 0.00 | 0.00 | 0.00 | 67 | 1008.8 |
| 20260906175402 | 80 | 342 | 2.6 | 6.1 | 0.00 | 0.00 | 0.00 | 68 | 1009.9 |
| 20260906175203 | 80 | 352 | 0.0 | 3.5 | 0.00 | 0.00 | 0.00 | 68 | 1009.9 |
| 20260906175103 | 80 | 356 | 0.0 | 3.5 | 0.00 | 0.00 | 0.00 | 68 | 1009.9 |
| 20260906175003 | 80 | 351 | 0.9 | 3.5 | 0.00 | 0.00 | 0.00 | 68 | 1009.9 |
| 20260906174903 | 80 | 7 | 0.9 | 3.5 | 0.00 | 0.00 | 0.00 | 68 | 1009.9 |
| 20260906174803 | 80 | 348 | 0.0 | 7.8 | 0.00 | 0.00 | 0.00 | 68 | 1009.9 |
| 20260906174703 | 80 | 341 | 0.9 | 7.8 | 0.00 | 0.00 | 0.00 | 68 | 1009.9 |
| 20260906174603 | 80 | 344 | 2.6 | 9.6 | 0.00 | 0.00 | 0.00 | 68 | 1009.9 |
| 20260906174403 | 80 | 339 | 0.0 | 9.6 | 0.00 | 0.00 | 0.00 | 69 | 1009.9 |
| 20260906174303 | 80 | 338 | 0.0 | 9.6 | 0.00 | 0.00 | 0.00 | 69 | 1009.9 |
| 20260906174203 | 80 | 333 | 0.0 | 9.6 | 0.00 | 0.00 | 0.00 | 69 | 1009.9 |
| 20260906174103 | 80 | 324 | 1.7 | 9.6 | 0.00 | 0.00 | 0.00 | 69 | 1009.9 |
| 20260906174003 | 80 | 325 | 1.7 | 9.6 | 0.00 | 0.00 | 0.00 | 68 | 1009.9 |
| 20260906173902 | 80 | 321 | 5.2 | 9.6 | 0.00 | 0.00 | 0.00 | 69 | 1009.9 |
| 20260906173702 | 80 | 320 | 5.2 | 9.6 | 0.00 | 0.00 | 0.00 | 69 | 1009.9 |
| 20260906173603 | 79 | 313 | 3.5 | 8.7 | 0.00 | 0.00 | 0.00 | 70 | 1009.9 |
| 20260906173502 | 79 | 314 | 3.5 | 8.7 | 0.00 | 0.00 | 0.00 | 70 | 1009.9 |
| 20260906173403 | 79 | 318 | 2.6 | 8.7 | 0.00 | 0.00 | 0.00 | 69 | 1009.9 |
| 20260906173302 | 79 | 320 | 1.7 | 8.7 | 0.00 | 0.00 | 0.00 | 70 | 1009.9 |
| 20260906173203 | 79 | 325 | 5.2 | 8.7 | 0.00 | 0.00 | 0.00 | 70 | 1009.9 |
| 20260906173102 | 79 | 330 | 5.2 | 8.7 | 0.00 | 0.00 | 0.00 | 70 | 1009.9 |
| 20260906173003 | 79 | 332 | 2.6 | 6.1 | 0.00 | 0.00 | 0.00 | 70 | 1009.9 |
| 20260906172803 | 79 | 328 | 0.0 | 6.1 | 0.00 | 0.00 | 0.00 | 70 | 1009.9 |
| 20260906172602 | 79 | 324 | 0.9 | 6.1 | 0.00 | 0.00 | 0.00 | 70 | 1009.9 |
| 20260906172503 | 79 | 321 | 1.7 | 7.0 | 0.00 | 0.00 | 0.00 | 70 | 1009.9 |
| 20260906172403 | 79 | 322 | 1.7 | 7.0 | 0.00 | 0.00 | 0.00 | 70 | 1008.8 |
| 20260906172305 | 79 | 319 | 0.9 | 7.0 | 0.00 | 0.00 | 0.00 | 70 | 1008.8 |
| 20260906172203 | 79 | 316 | 2.6 | 7.0 | 0.00 | 0.00 | 0.00 | 70 | 1008.8 |
| 20260906172103 | 79 | 315 | 2.6 | 7.0 | 0.00 | 0.00 | 0.00 | 72 | 1008.8 |
| 20260906172003 | 79 | 316 | 4.3 | 7.0 | 0.00 | 0.00 | 0.00 | 72 | 1008.8 |
| 20260906171903 | 79 | 317 | 3.5 | 7.0 | 0.00 | 0.00 | 0.00 | 72 | 1008.8 |
| 20260906171803 | 78 | 318 | 0.9 | 7.0 | 0.00 | 0.00 | 0.00 | 72 | 1008.8 |
| 20260906171703 | 78 | 315 | 0.9 | 7.0 | 0.00 | 0.00 | 0.00 | 72 | 1008.8 |
| 20260906171602 | 78 | 313 | 2.6 | 7.0 | 0.00 | 0.00 | 0.00 | 72 | 1008.8 |
| 20260906171403 | 78 | 315 | 0.0 | 7.0 | 0.00 | 0.00 | 0.00 | 72 | 1008.8 |
| 20260906171303 | 78 | 320 | 0.0 | 7.0 | 0.00 | 0.00 | 0.00 | 72 | 1008.8 |
| 20260906171102 | 78 | 319 | 3.5 | 7.0 | 0.00 | 0.00 | 0.00 | 73 | 1008.8 |
| 20260906170802 | 77 | 317 | 3.5 | 7.0 | 0.00 | 0.00 | 0.00 | 73 | 1009.9 |
| 20260906170703 | 77 | 317 | 3.5 | 7.0 | 0.00 | 0.00 | 0.00 | 73 | 1009.9 |
| 20260906170403 | 77 | 320 | 2.6 | 7.0 | 0.00 | 0.00 | 0.00 | 73 | 1009.9 |
| 20260906170203 | 77 | 312 | 0.0 | 7.0 | 0.00 | 0.00 | 0.00 | 73 | 1009.9 |
| 20260906170003 | 77 | 312 | 3.5 | 7.0 | 0.00 | 0.00 | 0.00 | 73 | 1009.9 |
| 20260906165903 | 77 | 312 | 3.5 | 7.0 | 0.00 | 0.00 | 0.00 | 73 | 1009.9 |
| 20260906165803 | 77 | 314 | 5.2 | 7.0 | 0.00 | 0.00 | 0.00 | 73 | 1009.9 |
| 20260906165703 | 77 | 319 | 0.0 | 4.3 | 0.00 | 0.00 | 0.00 | 73 | 1009.9 |
| 20260906165603 | 77 | 337 | 0.0 | 1.7 | 0.00 | 0.00 | 0.00 | 73 | 1009.9 |
| 20260906165503 | 77 | 337 | 0.0 | 1.7 | 0.00 | 0.00 | 0.00 | 75 | 1009.9 |
| 20260906165403 | 77 | 337 | 0.0 | 1.7 | 0.00 | 0.00 | 0.00 | 75 | 1009.9 |
| 20260906165203 | 76 | 337 | 0.0 | 1.7 | 0.00 | 0.00 | 0.00 | 75 | 1009.9 |
| 20260906165103 | 76 | 337 | 0.0 | 1.7 | 0.00 | 0.00 | 0.00 | 75 | 1009.9 |
| 20260906165004 | 76 | 235 | 0.0 | 4.3 | 0.00 | 0.00 | 0.00 | 75 | 1009.9 |
| 20260906164903 | 76 | 235 | 0.0 | 4.3 | 0.00 | 0.00 | 0.00 | 75 | 1009.9 |
| 20260906164803 | 76 | 241 | 0.9 | 4.3 | 0.00 | 0.00 | 0.00 | 75 | 1009.9 |
| 20260906164702 | 76 | 271 | 0.0 | 7.0 | 0.00 | 0.00 | 0.00 | 75 | 1009.9 |
| 20260906164603 | 76 | 271 | 0.0 | 7.0 | 0.00 | 0.00 | 0.00 | 75 | 1009.9 |
| 20260906164503 | 76 | 271 | 0.0 | 7.0 | 0.00 | 0.00 | 0.00 | 75 | 1009.9 |
| 20260906164403 | 76 | 271 | 0.0 | 7.0 | 0.00 | 0.00 | 0.00 | 75 | 1009.9 |
| 20260906164303 | 76 | 278 | 0.0 | 7.0 | 0.00 | 0.00 | 0.00 | 75 | 1009.9 |
| 20260906164203 | 76 | 278 | 0.0 | 7.0 | 0.00 | 0.00 | 0.00 | 75 | 1009.9 |
| 20260906164102 | 76 | 278 | 2.6 | 7.0 | 0.00 | 0.00 | 0.00 | 75 | 1009.9 |
| 20260906163703 | 76 | 345 | 0.0 | 3.5 | 0.00 | 0.00 | 0.00 | 76 | 1008.8 |
| 20260906163602 | 76 | 346 | 0.0 | 5.2 | 0.00 | 0.00 | 0.00 | 76 | 1008.8 |
| 20260906163503 | 76 | 346 | 1.7 | 5.2 | 0.00 | 0.00 | 0.00 | 76 | 1008.8 |
| 20260906163402 | 75 | 349 | 0.0 | 5.2 | 0.00 | 0.00 | 0.00 | 76 | 1008.8 |
| 20260906163303 | 75 | 357 | 0.0 | 5.2 | 0.00 | 0.00 | 0.00 | 76 | 1008.8 |
| 20260906163202 | 75 | 357 | 0.0 | 5.2 | 0.00 | 0.00 | 0.00 | 79 | 1008.8 |
| 20260906163003 | 75 | 316 | 1.7 | 7.0 | 0.00 | 0.00 | 0.00 | 79 | 1008.8 |
| 20260906162903 | 75 | 312 | 0.0 | 7.0 | 0.00 | 0.00 | 0.00 | 79 | 1008.8 |
| 20260906162803 | 75 | 312 | 0.0 | 7.0 | 0.00 | 0.00 | 0.00 | 79 | 1008.8 |
| 20260906162603 | 75 | 307 | 0.0 | 7.0 | 0.00 | 0.00 | 0.00 | 79 | 1008.8 |
| 20260906162503 | 75 | 301 | 0.0 | 7.0 | 0.00 | 0.00 | 0.00 | 79 | 1008.8 |
| 20260906162403 | 75 | 299 | 0.9 | 7.0 | 0.00 | 0.00 | 0.00 | 79 | 1008.8 |
| 20260906162306 | 74 | 299 | 0.9 | 7.0 | 0.00 | 0.00 | 0.00 | 79 | 1008.8 |
| 20260906162103 | 74 | 300 | 1.7 | 7.0 | 0.00 | 0.00 | 0.00 | 79 | 1008.8 |
| 20260906162003 | 74 | 302 | 1.7 | 7.0 | 0.00 | 0.00 | 0.00 | 79 | 1008.8 |
| 20260906161902 | 74 | 299 | 0.9 | 3.5 | 0.00 | 0.00 | 0.00 | 79 | 1008.8 |
| 20260906161803 | 74 | 299 | 0.9 | 3.5 | 0.00 | 0.00 | 0.00 | 79 | 1008.8 |
| 20260906161603 | 74 | 299 | 0.9 | 3.5 | 0.00 | 0.00 | 0.00 | 79 | 1008.8 |
| 20260906161503 | 74 | 317 | 1.7 | 3.5 | 0.00 | 0.00 | 0.00 | 79 | 1008.8 |
| 20260906161403 | 74 | 327 | 1.7 | 3.5 | 0.00 | 0.00 | 0.00 | 80 | 1008.8 |
| 20260906161303 | 73 | 300 | 0.9 | 3.5 | 0.00 | 0.00 | 0.00 | 81 | 1008.8 |
| 20260906161203 | 73 | 298 | 0.0 | 5.2 | 0.00 | 0.00 | 0.00 | 81 | 1008.8 |
| 20260906161103 | 73 | 298 | 0.0 | 5.2 | 0.00 | 0.00 | 0.00 | 81 | 1008.8 |
| 20260906161004 | 73 | 300 | 0.9 | 5.2 | 0.00 | 0.00 | 0.00 | 81 | 1008.8 |
| 20260906160903 | 73 | 291 | 0.0 | 5.2 | 0.00 | 0.00 | 0.00 | 81 | 1009.9 |
| 20260906160702 | 73 | 285 | 0.0 | 5.2 | 0.00 | 0.00 | 0.00 | 81 | 1009.9 |
| 20260906160603 | 73 | 272 | 0.0 | 6.1 | 0.00 | 0.00 | 0.00 | 81 | 1009.9 |
| 20260906160503 | 73 | 263 | 0.9 | 6.1 | 0.00 | 0.00 | 0.00 | 81 | 1009.9 |
| 20260906160303 | 72 | 249 | 2.6 | 6.1 | 0.00 | 0.00 | 0.00 | 81 | 1009.9 |
| 20260906160203 | 72 | 238 | 0.9 | 6.1 | 0.00 | 0.00 | 0.00 | 81 | 1009.9 |
| 20260906160103 | 72 | 238 | 0.0 | 6.1 | 0.00 | 0.00 | 0.00 | 81 | 1009.9 |
| 20260906160004 | 72 | 231 | 0.0 | 6.1 | 0.00 | 0.00 | 0.00 | 81 | 1009.9 |
| 20260906155903 | 72 | 232 | 0.0 | 6.1 | 0.00 | 0.00 | 0.00 | 81 | 1009.9 |
| 20260906155603 | 72 | 235 | 1.7 | 3.5 | 0.00 | 0.00 | 0.00 | 82 | 1009.9 |
| 20260906155503 | 72 | 236 | 0.9 | 3.5 | 0.00 | 0.00 | 0.00 | 82 | 1009.9 |
| 20260906155403 | 72 | 244 | 0.0 | 3.5 | 0.00 | 0.00 | 0.00 | 82 | 1008.8 |
| 20260906155306 | 71 | 270 | 0.0 | 2.6 | 0.00 | 0.00 | 0.00 | 83 | 1008.8 |
| 20260906155203 | 71 | 287 | 0.0 | 2.6 | 0.00 | 0.00 | 0.00 | 83 | 1008.8 |
| 20260906155103 | 71 | 287 | 0.0 | 2.6 | 0.00 | 0.00 | 0.00 | 83 | 1008.8 |
| 20260906155003 | 71 | 287 | 0.0 | 2.6 | 0.00 | 0.00 | 0.00 | 83 | 1008.8 |
| 20260906154903 | 71 | 287 | 0.9 | 2.6 | 0.00 | 0.00 | 0.00 | 83 | 1008.8 |
| 20260906154803 | 71 | 251 | 0.0 | 4.3 | 0.00 | 0.00 | 0.00 | 83 | 1008.8 |
| 20260906154703 | 71 | 240 | 0.0 | 5.2 | 0.00 | 0.00 | 0.00 | 83 | 1008.8 |
| 20260906154602 | 71 | 240 | 0.0 | 5.2 | 0.00 | 0.00 | 0.00 | 83 | 1008.8 |
| 20260906154402 | 71 | 208 | 0.0 | 5.2 | 0.00 | 0.00 | 0.00 | 83 | 1008.8 |
| 20260906154303 | 71 | 202 | 0.0 | 5.2 | 0.00 | 0.00 | 0.00 | 83 | 1008.8 |
| 20260906154202 | 71 | 201 | 0.0 | 5.2 | 0.00 | 0.00 | 0.00 | 83 | 1008.8 |
| 20260906154103 | 71 | 214 | 0.0 | 5.2 | 0.00 | 0.00 | 0.00 | 84 | 1008.8 |
| 20260906154003 | 71 | 214 | 1.7 | 5.2 | 0.00 | 0.00 | 0.00 | 84 | 1008.8 |
| 20260906153902 | 70 | 217 | 1.7 | 5.2 | 0.00 | 0.00 | 0.00 | 84 | 1009.9 |
| 20260906153803 | 70 | 214 | 1.7 | 5.2 | 0.00 | 0.00 | 0.00 | 84 | 1009.9 |
| 20260906153703 | 70 | 199 | 0.9 | 4.3 | 0.00 | 0.00 | 0.00 | 84 | 1009.9 |
| 20260906153603 | 70 | 199 | 0.9 | 4.3 | 0.00 | 0.00 | 0.00 | 84 | 1009.9 |
| 20260906153503 | 70 | 231 | 0.0 | 3.5 | 0.00 | 0.00 | 0.00 | 84 | 1009.9 |
| 20260906153303 | 70 | 225 | 1.7 | 3.5 | 0.00 | 0.00 | 0.00 | 84 | 1009.9 |
| 20260906153203 | 70 | 232 | 1.7 | 4.3 | 0.00 | 0.00 | 0.00 | 84 | 1009.9 |
| 20260906153003 | 70 | 232 | 0.0 | 4.3 | 0.00 | 0.00 | 0.00 | 84 | 1009.9 |
| 20260906152903 | 70 | 233 | 0.0 | 4.3 | 0.00 | 0.00 | 0.00 | 84 | 1009.9 |
| 20260906152803 | 70 | 233 | 0.0 | 4.3 | 0.00 | 0.00 | 0.00 | 84 | 1009.9 |
| 20260906152703 | 70 | 233 | 0.0 | 4.3 | 0.00 | 0.00 | 0.00 | 84 | 1009.9 |
| 20260906152503 | 70 | 233 | 1.7 | 4.3 | 0.00 | 0.00 | 0.00 | 84 | 1009.9 |
| 20260906152403 | 70 | 233 | 1.7 | 4.3 | 0.00 | 0.00 | 0.00 | 85 | 1009.9 |
| 20260906152203 | 69 | 237 | 2.6 | 4.3 | 0.00 | 0.00 | 0.00 | 85 | 1009.9 |
| 20260906152003 | 69 | 242 | 0.0 | 6.1 | 0.00 | 0.00 | 0.00 | 85 | 1009.9 |
| 20260906151903 | 69 | 241 | 0.0 | 6.1 | 0.00 | 0.00 | 0.00 | 85 | 1009.9 |
| 20260906151702 | 69 | 237 | 0.0 | 6.1 | 0.00 | 0.00 | 0.00 | 85 | 1009.9 |
| 20260906151603 | 69 | 233 | 0.0 | 6.1 | 0.00 | 0.00 | 0.00 | 85 | 1009.9 |
| 20260906151504 | 69 | 229 | 0.0 | 6.1 | 0.00 | 0.00 | 0.00 | 85 | 1009.9 |
| 20260906151403 | 69 | 228 | 2.6 | 6.1 | 0.00 | 0.00 | 0.00 | 85 | 1009.9 |
| 20260906151303 | 69 | 228 | 2.6 | 6.1 | 0.00 | 0.00 | 0.00 | 85 | 1009.9 |
| 20260906151203 | 69 | 226 | 0.9 | 6.1 | 0.00 | 0.00 | 0.00 | 85 | 1009.9 |
| 20260906151103 | 69 | 223 | 0.9 | 6.1 | 0.00 | 0.00 | 0.00 | 85 | 1009.9 |
| 20260906151004 | 69 | 223 | 3.5 | 6.1 | 0.00 | 0.00 | 0.00 | 85 | 1009.9 |
| 20260906150903 | 69 | 223 | 1.7 | 6.1 | 0.00 | 0.00 | 0.00 | 85 | 1009.9 |
| 20260906150803 | 69 | 221 | 1.7 | 6.1 | 0.00 | 0.00 | 0.00 | 85 | 1009.9 |
| 20260906150703 | 69 | 221 | 4.3 | 6.1 | 0.00 | 0.00 | 0.00 | 85 | 1009.9 |
| 20260906150403 | 68 | 212 | 0.9 | 5.2 | 0.00 | 0.00 | 0.00 | 87 | 1009.9 |
| 20260906150303 | 68 | 211 | 0.0 | 5.2 | 0.00 | 0.00 | 0.00 | 87 | 1009.9 |
| 20260906150202 | 68 | 132 | 0.0 | 2.6 | 0.00 | 0.00 | 0.00 | 87 | 1009.9 |
| 20260906150004 | 68 | 98 | 0.0 | 2.6 | 0.00 | 0.00 | 0.00 | 87 | 1009.9 |
| 20260906145903 | 68 | 100 | 0.0 | 2.6 | 0.00 | 0.00 | 0.00 | 87 | 1009.9 |
| 20260906145803 | 68 | 98 | 0.0 | 2.6 | 0.00 | 0.00 | 0.00 | 87 | 1009.9 |
| 20260906145703 | 68 | 100 | 0.0 | 2.6 | 0.00 | 0.00 | 0.00 | 87 | 1009.9 |
| 20260906145603 | 68 | 105 | 0.0 | 4.3 | 0.00 | 0.00 | 0.00 | 87 | 1009.9 |
| 20260906145503 | 68 | 105 | 0.0 | 4.3 | 0.00 | 0.00 | 0.00 | 87 | 1009.9 |
| 20260906145403 | 68 | 105 | 0.0 | 4.3 | 0.00 | 0.00 | 0.00 | 87 | 1009.9 |
| 20260906145306 | 68 | 105 | 0.0 | 4.3 | 0.00 | 0.00 | 0.00 | 87 | 1009.9 |
| 20260906145203 | 68 | 105 | 0.0 | 4.3 | 0.00 | 0.00 | 0.00 | 87 | 1009.9 |
| 20260906145102 | 68 | 105 | 0.9 | 4.3 | 0.00 | 0.00 | 0.00 | 87 | 1009.9 |
| 20260906145003 | 68 | 113 | 0.9 | 4.3 | 0.00 | 0.00 | 0.00 | 88 | 1009.9 |
| 20260906144903 | 68 | 119 | 0.0 | 4.3 | 0.00 | 0.00 | 0.00 | 88 | 1009.9 |
| 20260906144703 | 68 | 135 | 0.9 | 4.3 | 0.00 | 0.00 | 0.00 | 88 | 1009.9 |
| 20260906144603 | 68 | 103 | 0.0 | 2.6 | 0.00 | 0.00 | 0.00 | 88 | 1009.9 |
| 20260906144503 | 68 | 103 | 0.0 | 2.6 | 0.00 | 0.00 | 0.00 | 88 | 1009.9 |
| 20260906144403 | 68 | 84 | 0.0 | 2.6 | 0.00 | 0.00 | 0.00 | 88 | 1009.9 |
| 20260906144303 | 68 | 84 | 0.0 | 2.6 | 0.00 | 0.00 | 0.00 | 88 | 1009.9 |
| 20260906144204 | 68 | 84 | 0.0 | 2.6 | 0.00 | 0.00 | 0.00 | 88 | 1009.9 |
| 20260906144103 | 68 | 67 | 0.0 | 2.6 | 0.00 | 0.00 | 0.00 | 88 | 1009.9 |
| 20260906144003 | 68 | 58 | 0.0 | 2.6 | 0.00 | 0.00 | 0.00 | 88 | 1009.9 |
| 20260906143903 | 67 | 58 | 0.0 | 2.6 | 0.00 | 0.00 | 0.00 | 90 | 1008.8 |
| 20260906143803 | 67 | 58 | 0.0 | 2.6 | 0.00 | 0.00 | 0.00 | 90 | 1008.8 |
| 20260906143703 | 67 | 39 | 0.0 | 2.6 | 0.00 | 0.00 | 0.00 | 90 | 1008.8 |
| 20260906143603 | 67 | 17 | 0.0 | 2.6 | 0.00 | 0.00 | 0.00 | 90 | 1008.8 |
| 20260906143503 | 67 | 17 | 0.0 | 2.6 | 0.00 | 0.00 | 0.00 | 90 | 1008.8 |
| 20260906143403 | 67 | 9 | 0.0 | 2.6 | 0.00 | 0.00 | 0.00 | 90 | 1008.8 |
| 20260906143303 | 67 | 9 | 0.0 | 2.6 | 0.00 | 0.00 | 0.00 | 90 | 1008.8 |
| 20260906143203 | 67 | 9 | 0.0 | 2.6 | 0.00 | 0.00 | 0.00 | 90 | 1008.8 |
| 20260906143004 | 67 | 5 | 0.0 | 2.6 | 0.00 | 0.00 | 0.00 | 90 | 1008.8 |
| 20260906142903 | 67 | 5 | 0.0 | 2.6 | 0.00 | 0.00 | 0.00 | 90 | 1008.8 |
| 20260906142703 | 67 | 0 | 0.0 | 0.0 | 0.00 | 0.00 | 0.00 | 90 | 1008.8 |
| 20260906142603 | 67 | 0 | 0.0 | 0.0 | 0.00 | 0.00 | 0.00 | 90 | 1008.8 |
| 20260906142503 | 67 | 45 | 0.0 | 2.6 | 0.00 | 0.00 | 0.00 | 90 | 1008.8 |
| 20260906142403 | 67 | 40 | 0.0 | 2.6 | 0.00 | 0.00 | 0.00 | 90 | 1009.9 |
| 20260906142306 | 67 | 40 | 0.0 | 2.6 | 0.00 | 0.00 | 0.00 | 90 | 1009.9 |
| 20260906142202 | 67 | 37 | 0.0 | 2.6 | 0.00 | 0.00 | 0.00 | 90 | 1009.9 |
| 20260906142103 | 67 | 34 | 0.0 | 2.6 | 0.00 | 0.00 | 0.00 | 90 | 1009.9 |
| 20260906142003 | 66 | 33 | 0.0 | 2.6 | 0.00 | 0.00 | 0.00 | 90 | 1009.9 |
| 20260906141903 | 66 | 31 | 0.0 | 2.6 | 0.00 | 0.00 | 0.00 | 90 | 1009.9 |
| 20260906141803 | 66 | 30 | 0.0 | 2.6 | 0.00 | 0.00 | 0.00 | 90 | 1009.9 |
| 20260906141703 | 66 | 30 | 0.0 | 2.6 | 0.00 | 0.00 | 0.00 | 90 | 1009.9 |
| 20260906141603 | 66 | 27 | 0.0 | 2.6 | 0.00 | 0.00 | 0.00 | 90 | 1009.9 |
| 20260906141503 | 66 | 27 | 0.0 | 2.6 | 0.00 | 0.00 | 0.00 | 92 | 1009.9 |
| 20260906141403 | 66 | 29 | 0.0 | 3.5 | 0.00 | 0.00 | 0.00 | 92 | 1009.9 |
| 20260906141203 | 66 | 26 | 0.0 | 3.5 | 0.00 | 0.00 | 0.00 | 92 | 1009.9 |
| 20260906141103 | 66 | 26 | 0.0 | 3.5 | 0.00 | 0.00 | 0.00 | 92 | 1009.9 |
| 20260906141004 | 66 | 27 | 0.0 | 3.5 | 0.00 | 0.00 | 0.00 | 92 | 1009.9 |
| 20260906140703 | 66 | 29 | 0.9 | 3.5 | 0.00 | 0.00 | 0.00 | 92 | 1008.8 |
| 20260906140603 | 66 | 30 | 0.9 | 3.5 | 0.00 | 0.00 | 0.00 | 92 | 1008.8 |
| 20260906140503 | 66 | 26 | 0.9 | 3.5 | 0.00 | 0.00 | 0.00 | 92 | 1008.8 |
| 20260906140403 | 65 | 21 | 1.7 | 3.5 | 0.00 | 0.00 | 0.00 | 94 | 1008.8 |
| 20260906140303 | 65 | 25 | 0.0 | 3.5 | 0.00 | 0.00 | 0.00 | 94 | 1008.8 |
| 20260906140203 | 65 | 23 | 0.0 | 3.5 | 0.00 | 0.00 | 0.00 | 92 | 1008.8 |
| 20260906140003 | 65 | 20 | 0.9 | 3.5 | 0.00 | 0.00 | 0.00 | 94 | 1008.8 |
| 20260906135903 | 65 | 15 | 0.0 | 2.6 | 0.00 | 0.00 | 0.00 | 92 | 1008.8 |
| 20260906135803 | 65 | 15 | 0.0 | 2.6 | 0.00 | 0.00 | 0.00 | 92 | 1008.8 |
| 20260906135603 | 65 | 13 | 0.0 | 2.6 | 0.00 | 0.00 | 0.00 | 92 | 1008.8 |
| 20260906135503 | 65 | 8 | 0.0 | 0.9 | 0.00 | 0.00 | 0.00 | 92 | 1008.8 |
| 20260906135403 | 65 | 12 | 0.0 | 0.9 | 0.00 | 0.00 | 0.00 | 92 | 1009.9 |
| 20260906135306 | 65 | 1 | 0.0 | 0.9 | 0.00 | 0.00 | 0.00 | 92 | 1009.9 |
| 20260906135203 | 65 | 0 | 0.0 | 0.0 | 0.00 | 0.00 | 0.00 | 92 | 1009.9 |
| 20260906134903 | 64 | 0 | 0.0 | 0.0 | 0.00 | 0.00 | 0.00 | 94 | 1009.9 |
| 20260906134603 | 64 | 0 | 0.0 | 0.0 | 0.00 | 0.00 | 0.00 | 94 | 1009.9 |
| 20260906134403 | 64 | 0 | 0.0 | 0.0 | 0.00 | 0.00 | 0.00 | 94 | 1009.9 |
| 20260906134303 | 64 | 0 | 0.0 | 0.0 | 0.00 | 0.00 | 0.00 | 94 | 1009.9 |
| 20260906134203 | 64 | 0 | 0.0 | 0.0 | 0.00 | 0.00 | 0.00 | 94 | 1009.9 |
| 20260906134103 | 63 | 0 | 0.0 | 0.0 | 0.00 | 0.00 | 0.00 | 92 | 1009.9 |
| 20260906134003 | 62 | 0 | 0.0 | 0.0 | 0.00 | 0.00 | 0.00 | 92 | 1009.9 |
| 20260906133903 | 62 | 0 | 0.0 | 0.0 | 0.00 | 0.00 | 0.00 | 92 | 1009.9 |
| 20260906133803 | 62 | 0 | 0.0 | 0.0 | 0.00 | 0.00 | 0.00 | 92 | 1009.9 |
| 20260906133703 | 62 | 0 | 0.0 | 0.0 | 0.00 | 0.00 | 0.00 | 92 | 1009.9 |
| 20260906133602 | 62 | 0 | 0.0 | 0.0 | 0.00 | 0.00 | 0.00 | 92 | 1009.9 |
| 20260906133503 | 62 | 0 | 0.0 | 0.0 | 0.00 | 0.00 | 0.00 | 94 | 1009.9 |
| 20260906133303 | 62 | 0 | 0.0 | 0.0 | 0.00 | 0.00 | 0.00 | 94 | 1009.9 |
| 20260906133103 | 62 | 0 | 0.0 | 0.0 | 0.00 | 0.00 | 0.00 | 94 | 1009.9 |
| 20260906133003 | 62 | 0 | 0.0 | 0.0 | 0.00 | 0.00 | 0.00 | 92 | 1009.9 |
| 20260906132903 | 62 | 225 | 0.0 | 0.9 | 0.00 | 0.00 | 0.00 | 92 | 1009.9 |
| 20260906132802 | 62 | 225 | 0.0 | 0.9 | 0.00 | 0.00 | 0.00 | 92 | 1009.9 |
| 20260906132703 | 62 | 225 | 0.0 | 0.9 | 0.00 | 0.00 | 0.00 | 92 | 1009.9 |
| 20260906132603 | 62 | 225 | 0.0 | 0.9 | 0.00 | 0.00 | 0.00 | 92 | 1009.9 |
| 20260906132504 | 62 | 225 | 0.0 | 0.9 | 0.00 | 0.00 | 0.00 | 94 | 1009.9 |
| 20260906132402 | 62 | 225 | 0.0 | 0.9 | 0.00 | 0.00 | 0.00 | 94 | 1009.9 |
| 20260906132306 | 62 | 225 | 0.0 | 0.9 | 0.00 | 0.00 | 0.00 | 94 | 1009.9 |
| 20260906132103 | 62 | 225 | 0.0 | 0.9 | 0.00 | 0.00 | 0.00 | 94 | 1009.9 |
| 20260906132003 | 62 | 225 | 0.0 | 0.9 | 0.00 | 0.00 | 0.00 | 94 | 1009.9 |
| 20260906131902 | 62 | 244 | 0.0 | 2.6 | 0.00 | 0.00 | 0.00 | 94 | 1009.9 |
| 20260906131803 | 62 | 248 | 0.0 | 3.5 | 0.00 | 0.00 | 0.00 | 94 | 1009.9 |
| 20260906131702 | 62 | 248 | 0.0 | 3.5 | 0.00 | 0.00 | 0.00 | 94 | 1009.9 |
| 20260906131603 | 62 | 248 | 0.0 | 3.5 | 0.00 | 0.00 | 0.00 | 94 | 1009.9 |
| 20260906131403 | 62 | 248 | 0.0 | 3.5 | 0.00 | 0.00 | 0.00 | 94 | 1009.9 |
| 20260906131302 | 62 | 248 | 0.0 | 3.5 | 0.00 | 0.00 | 0.00 | 94 | 1009.9 |
| 20260906131203 | 62 | 248 | 0.0 | 3.5 | 0.00 | 0.00 | 0.00 | 94 | 1009.9 |
| 20260906131103 | 62 | 248 | 0.0 | 3.5 | 0.00 | 0.00 | 0.00 | 94 | 1009.9 |
| 20260906131004 | 62 | 248 | 0.9 | 3.5 | 0.00 | 0.00 | 0.00 | 94 | 1009.9 |
| 20260906130902 | 62 | 248 | 0.9 | 3.5 | 0.00 | 0.00 | 0.00 | 94 | 1009.9 |
| 20260906130803 | 62 | 248 | 0.0 | 3.5 | 0.00 | 0.00 | 0.00 | 94 | 1009.9 |
| 20260906130705 | 61 | 248 | 0.0 | 3.5 | 0.00 | 0.00 | 0.00 | 94 | 1009.9 |
| 20260906130603 | 61 | 0 | 0.0 | 0.0 | 0.00 | 0.00 | 0.00 | 94 | 1009.9 |
| 20260906130503 | 61 | 0 | 0.0 | 0.0 | 0.00 | 0.00 | 0.00 | 94 | 1009.9 |
| 20260906130403 | 61 | 0 | 0.0 | 0.0 | 0.00 | 0.00 | 0.00 | 94 | 1009.9 |
| 20260906130302 | 61 | 0 | 0.0 | 0.0 | 0.00 | 0.00 | 0.00 | 94 | 1009.9 |
| 20260906130203 | 61 | 0 | 0.0 | 0.0 | 0.00 | 0.00 | 0.00 | 92 | 1009.9 |
| 20260906130103 | 61 | 0 | 0.0 | 0.0 | 0.00 | 0.00 | 0.00 | 92 | 1009.9 |
| 20260906125903 | 61 | 0 | 0.0 | 0.0 | 0.00 | 0.00 | 0.00 | 92 | 1009.9 |
| 20260906125803 | 61 | 0 | 0.0 | 0.0 | 0.00 | 0.00 | 0.00 | 94 | 1009.9 |
| 20260906125702 | 61 | 337 | 0.0 | 1.7 | 0.00 | 0.00 | 0.00 | 92 | 1009.9 |
| 20260906125603 | 61 | 337 | 0.0 | 1.7 | 0.00 | 0.00 | 0.00 | 92 | 1009.9 |
| 20260906125503 | 61 | 337 | 0.9 | 1.7 | 0.00 | 0.00 | 0.00 | 92 | 1009.9 |
| 20260906125403 | 61 | 337 | 0.9 | 1.7 | 0.00 | 0.00 | 0.00 | 92 | 1009.9 |
| 20260906125306 | 61 | 337 | 0.9 | 1.7 | 0.00 | 0.00 | 0.00 | 92 | 1009.9 |
| 20260906125203 | 61 | 337 | 0.0 | 1.7 | 0.00 | 0.00 | 0.00 | 92 | 1009.9 |
| 20260906125103 | 61 | 258 | 0.0 | 2.6 | 0.00 | 0.00 | 0.00 | 92 | 1009.9 |
| 20260906124903 | 61 | 257 | 0.0 | 2.6 | 0.00 | 0.00 | 0.00 | 92 | 1009.9 |
| 20260906124803 | 61 | 257 | 0.0 | 2.6 | 0.00 | 0.00 | 0.00 | 92 | 1009.9 |
| 20260906124703 | 61 | 257 | 0.9 | 2.6 | 0.00 | 0.00 | 0.00 | 92 | 1009.9 |
| 20260906124403 | 61 | 245 | 0.0 | 2.6 | 0.00 | 0.00 | 0.00 | 92 | 1009.9 |
| 20260906124303 | 61 | 245 | 0.0 | 2.6 | 0.00 | 0.00 | 0.00 | 92 | 1009.9 |
| 20260906124203 | 61 | 245 | 0.0 | 2.6 | 0.00 | 0.00 | 0.00 | 92 | 1009.9 |
| 20260906124104 | 62 | 256 | 0.0 | 2.6 | 0.00 | 0.00 | 0.00 | 91 | 1009.9 |
| 20260906124004 | 62 | 248 | 0.0 | 3.5 | 0.00 | 0.00 | 0.00 | 91 | 1009.9 |
| 20260906123903 | 62 | 248 | 0.0 | 3.5 | 0.00 | 0.00 | 0.00 | 91 | 1009.9 |
| 20260906123802 | 62 | 248 | 0.0 | 3.5 | 0.00 | 0.00 | 0.00 | 91 | 1009.9 |
| 20260906123703 | 62 | 248 | 0.0 | 3.5 | 0.00 | 0.00 | 0.00 | 91 | 1009.9 |
| 20260906123604 | 62 | 241 | 0.0 | 3.5 | 0.00 | 0.00 | 0.00 | 91 | 1009.9 |
| 20260906123503 | 62 | 238 | 0.0 | 3.5 | 0.00 | 0.00 | 0.00 | 91 | 1009.9 |
| 20260906123403 | 62 | 238 | 0.0 | 3.5 | 0.00 | 0.00 | 0.00 | 91 | 1009.9 |
| 20260906123303 | 62 | 238 | 0.0 | 3.5 | 0.00 | 0.00 | 0.00 | 91 | 1009.9 |
| 20260906123202 | 62 | 238 | 0.0 | 3.5 | 0.00 | 0.00 | 0.00 | 91 | 1009.9 |
| 20260906123103 | 62 | 238 | 0.9 | 3.5 | 0.00 | 0.00 | 0.00 | 91 | 1009.9 |
| 20260906123003 | 62 | 236 | 0.9 | 3.5 | 0.00 | 0.00 | 0.00 | 91 | 1009.9 |
| 20260906122803 | 62 | 236 | 0.9 | 3.5 | 0.00 | 0.00 | 0.00 | 91 | 1009.9 |
| 20260906122603 | 62 | 240 | 0.9 | 5.2 | 0.00 | 0.00 | 0.00 | 91 | 1009.9 |
| 20260906122503 | 62 | 243 | 0.0 | 5.2 | 0.00 | 0.00 | 0.00 | 91 | 1009.9 |
| 20260906122403 | 62 | 243 | 0.0 | 5.2 | 0.00 | 0.00 | 0.00 | 91 | 1008.8 |
| 20260906122305 | 62 | 242 | 0.0 | 5.2 | 0.00 | 0.00 | 0.00 | 91 | 1008.8 |
| 20260906122202 | 62 | 242 | 0.0 | 5.2 | 0.00 | 0.00 | 0.00 | 91 | 1008.8 |
| 20260906122103 | 62 | 242 | 1.7 | 5.2 | 0.00 | 0.00 | 0.00 | 91 | 1008.8 |
| 20260906122004 | 62 | 241 | 1.7 | 5.2 | 0.00 | 0.00 | 0.00 | 91 | 1008.8 |
| 20260906121903 | 62 | 240 | 0.0 | 5.2 | 0.00 | 0.00 | 0.00 | 91 | 1008.8 |
| 20260906121803 | 62 | 240 | 1.7 | 5.2 | 0.00 | 0.00 | 0.00 | 91 | 1008.8 |
| 20260906121703 | 62 | 240 | 0.9 | 5.2 | 0.00 | 0.00 | 0.00 | 91 | 1008.8 |
| 20260906121603 | 62 | 239 | 0.9 | 5.2 | 0.00 | 0.00 | 0.00 | 91 | 1008.8 |
| 20260906121503 | 62 | 237 | 0.0 | 5.2 | 0.00 | 0.00 | 0.00 | 91 | 1008.8 |
| 20260906121402 | 62 | 237 | 1.7 | 5.2 | 0.00 | 0.00 | 0.00 | 91 | 1008.8 |
| 20260906121203 | 62 | 242 | 3.5 | 5.2 | 0.00 | 0.00 | 0.00 | 91 | 1008.8 |
| 20260906121103 | 62 | 244 | 2.6 | 5.2 | 0.00 | 0.00 | 0.00 | 91 | 1008.8 |
| 20260906121004 | 62 | 250 | 0.0 | 3.5 | 0.00 | 0.00 | 0.00 | 91 | 1008.8 |
| 20260906120903 | 62 | 250 | 0.0 | 3.5 | 0.00 | 0.00 | 0.00 | 91 | 1008.8 |
| 20260906120803 | 62 | 252 | 0.0 | 3.5 | 0.00 | 0.00 | 0.00 | 91 | 1008.8 |
| 20260906120703 | 62 | 247 | 0.0 | 3.5 | 0.00 | 0.00 | 0.00 | 91 | 1008.8 |
| 20260906120603 | 62 | 249 | 0.0 | 3.5 | 0.00 | 0.00 | 0.00 | 91 | 1008.8 |
| 20260906120503 | 62 | 251 | 0.0 | 3.5 | 0.00 | 0.00 | 0.00 | 91 | 1008.8 |
| 20260906120403 | 62 | 240 | 0.0 | 5.2 | 0.00 | 0.00 | 0.00 | 91 | 1008.8 |
| 20260906120303 | 62 | 240 | 2.6 | 5.2 | 0.00 | 0.00 | 0.00 | 91 | 1008.8 |
| 20260906120203 | 63 | 231 | 2.6 | 5.2 | 0.00 | 0.00 | 0.00 | 90 | 1008.8 |
| 20260906120003 | 62 | 230 | 0.0 | 5.2 | 0.00 | 0.00 | 0.00 | 91 | 1008.8 |
| 20260906115903 | 62 | 231 | 0.0 | 7.0 | 0.00 | 0.00 | 0.00 | 91 | 1008.8 |
| 20260906115803 | 62 | 233 | 0.0 | 7.0 | 0.00 | 0.00 | 0.00 | 91 | 1008.8 |
| 20260906115703 | 63 | 235 | 0.0 | 8.7 | 0.00 | 0.00 | 0.00 | 90 | 1008.8 |
| 20260906115602 | 63 | 236 | 2.6 | 8.7 | 0.00 | 0.00 | 0.00 | 90 | 1008.8 |
| 20260906115503 | 63 | 237 | 0.0 | 8.7 | 0.00 | 0.00 | 0.00 | 90 | 1008.8 |
| 20260906115403 | 63 | 238 | 0.0 | 8.7 | 0.00 | 0.00 | 0.00 | 90 | 1009.9 |
| 20260906115306 | 63 | 239 | 0.9 | 8.7 | 0.00 | 0.00 | 0.00 | 90 | 1009.9 |
| 20260906115103 | 63 | 239 | 3.5 | 8.7 | 0.00 | 0.00 | 0.00 | 90 | 1009.9 |
| 20260906115003 | 63 | 240 | 3.5 | 8.7 | 0.00 | 0.00 | 0.00 | 90 | 1009.9 |
| 20260906114902 | 63 | 243 | 7.0 | 8.7 | 0.00 | 0.00 | 0.00 | 90 | 1009.9 |
| 20260906114803 | 63 | 244 | 7.0 | 8.7 | 0.00 | 0.00 | 0.00 | 90 | 1009.9 |
| 20260906114704 | 63 | 243 | 6.1 | 7.0 | 0.00 | 0.00 | 0.00 | 90 | 1009.9 |
| 20260906114603 | 63 | 244 | 5.2 | 7.0 | 0.00 | 0.00 | 0.00 | 90 | 1009.9 |
| 20260906114503 | 63 | 241 | 5.2 | 7.0 | 0.00 | 0.00 | 0.00 | 90 | 1009.9 |
| 20260906114403 | 63 | 241 | 5.2 | 7.0 | 0.00 | 0.00 | 0.00 | 90 | 1009.9 |
| 20260906114203 | 63 | 240 | 4.3 | 7.0 | 0.00 | 0.00 | 0.00 | 90 | 1009.9 |
| 20260906114102 | 63 | 240 | 4.3 | 7.0 | 0.00 | 0.00 | 0.00 | 90 | 1009.9 |
| 20260906114003 | 63 | 239 | 5.2 | 7.0 | 0.00 | 0.00 | 0.00 | 90 | 1009.9 |
| 20260906113803 | 64 | 234 | 5.2 | 7.0 | 0.00 | 0.00 | 0.00 | 90 | 1009.9 |
| 20260906113703 | 64 | 233 | 6.1 | 7.0 | 0.00 | 0.00 | 0.00 | 90 | 1009.9 |
| 20260906113603 | 64 | 227 | 5.2 | 7.0 | 0.00 | 0.00 | 0.00 | 90 | 1009.9 |
| 20260906113503 | 64 | 229 | 0.0 | 4.3 | 0.00 | 0.00 | 0.00 | 90 | 1009.9 |
| 20260906113402 | 64 | 239 | 0.0 | 2.6 | 0.00 | 0.00 | 0.00 | 90 | 1009.9 |
| 20260906113303 | 64 | 239 | 0.0 | 2.6 | 0.00 | 0.00 | 0.00 | 90 | 1009.9 |
| 20260906113203 | 64 | 0 | 0.0 | 0.0 | 0.00 | 0.00 | 0.00 | 90 | 1009.9 |
| 20260906113103 | 64 | 0 | 0.0 | 0.0 | 0.00 | 0.00 | 0.00 | 90 | 1009.9 |
| 20260906113003 | 64 | 0 | 0.0 | 0.0 | 0.00 | 0.00 | 0.00 | 90 | 1009.9 |
| 20260906112903 | 64 | 0 | 0.0 | 0.0 | 0.00 | 0.00 | 0.00 | 90 | 1009.9 |
| 20260906112803 | 64 | 0 | 0.0 | 0.0 | 0.00 | 0.00 | 0.00 | 90 | 1009.9 |
| 20260906112703 | 64 | 0 | 0.0 | 0.0 | 0.00 | 0.00 | 0.00 | 90 | 1009.9 |
| 20260906112503 | 64 | 0 | 0.0 | 0.0 | 0.00 | 0.00 | 0.00 | 90 | 1009.9 |
| 20260906112403 | 64 | 0 | 0.0 | 0.0 | 0.00 | 0.00 | 0.00 | 90 | 1009.9 |
| 20260906112306 | 64 | 46 | 0.0 | 0.9 | 0.00 | 0.00 | 0.00 | 90 | 1009.9 |
| 20260906112203 | 64 | 46 | 0.0 | 0.9 | 0.00 | 0.00 | 0.00 | 90 | 1009.9 |
| 20260906112103 | 64 | 46 | 0.0 | 0.9 | 0.00 | 0.00 | 0.00 | 90 | 1009.9 |
| 20260906112003 | 64 | 46 | 0.0 | 0.9 | 0.00 | 0.00 | 0.00 | 90 | 1009.9 |
| 20260906111803 | 64 | 46 | 0.0 | 0.9 | 0.00 | 0.00 | 0.00 | 90 | 1009.9 |
| 20260906111703 | 64 | 46 | 0.0 | 0.9 | 0.00 | 0.00 | 0.00 | 90 | 1009.9 |
| 20260906111603 | 64 | 46 | 0.0 | 0.9 | 0.00 | 0.00 | 0.00 | 90 | 1009.9 |
| 20260906111403 | 64 | 24 | 0.0 | 3.5 | 0.00 | 0.00 | 0.00 | 90 | 1009.9 |
| 20260906111303 | 65 | 23 | 0.0 | 3.5 | 0.00 | 0.00 | 0.00 | 90 | 1009.9 |
| 20260906111203 | 65 | 23 | 0.0 | 3.5 | 0.00 | 0.00 | 0.00 | 91 | 1009.9 |
| 20260906111103 | 65 | 23 | 0.0 | 3.5 | 0.00 | 0.00 | 0.00 | 91 | 1009.9 |
| 20260906111003 | 65 | 22 | 0.0 | 3.5 | 0.00 | 0.00 | 0.00 | 91 | 1009.9 |
| 20260906110903 | 65 | 23 | 0.0 | 3.5 | 0.00 | 0.00 | 0.00 | 92 | 1009.9 |
| 20260906110803 | 65 | 20 | 0.0 | 3.5 | 0.00 | 0.00 | 0.00 | 92 | 1009.9 |
| 20260906110703 | 65 | 19 | 0.9 | 3.5 | 0.00 | 0.00 | 0.00 | 91 | 1009.9 |
| 20260906110603 | 65 | 19 | 0.9 | 3.5 | 0.00 | 0.00 | 0.00 | 91 | 1009.9 |
| 20260906110503 | 65 | 18 | 0.0 | 3.5 | 0.00 | 0.00 | 0.00 | 91 | 1009.9 |
| 20260906110403 | 65 | 19 | 0.0 | 3.5 | 0.00 | 0.00 | 0.00 | 92 | 1009.9 |
| 20260906110303 | 65 | 19 | 0.0 | 3.5 | 0.00 | 0.00 | 0.00 | 91 | 1009.9 |
| 20260906110203 | 65 | 18 | 0.0 | 4.3 | 0.00 | 0.00 | 0.00 | 91 | 1009.9 |
| 20260906110103 | 65 | 17 | 0.0 | 4.3 | 0.00 | 0.00 | 0.00 | 91 | 1009.9 |
| 20260906110004 | 65 | 17 | 0.0 | 4.3 | 0.00 | 0.00 | 0.00 | 91 | 1009.9 |
| 20260906105903 | 65 | 17 | 0.0 | 4.3 | 0.00 | 0.00 | 0.00 | 90 | 1009.9 |
| 20260906105803 | 65 | 16 | 1.7 | 4.3 | 0.00 | 0.00 | 0.00 | 90 | 1009.9 |
| 20260906105703 | 65 | 14 | 0.0 | 4.3 | 0.00 | 0.00 | 0.00 | 91 | 1009.9 |
| 20260906105603 | 65 | 14 | 0.0 | 4.3 | 0.00 | 0.00 | 0.00 | 90 | 1009.9 |
| 20260906105503 | 65 | 14 | 1.7 | 4.3 | 0.00 | 0.00 | 0.00 | 90 | 1009.9 |
| 20260906105403 | 65 | 13 | 0.0 | 4.3 | 0.00 | 0.00 | 0.00 | 90 | 1009.9 |
| 20260906105102 | 65 | 11 | 0.0 | 4.3 | 0.00 | 0.00 | 0.00 | 91 | 1009.9 |
| 20260906105004 | 65 | 11 | 2.6 | 4.3 | 0.00 | 0.00 | 0.00 | 90 | 1009.9 |
| 20260906104903 | 65 | 8 | 3.5 | 4.3 | 0.00 | 0.00 | 0.00 | 91 | 1009.9 |
| 20260906104802 | 65 | 5 | 3.5 | 4.3 | 0.00 | 0.00 | 0.00 | 91 | 1009.9 |
| 20260906104703 | 65 | 16 | 0.0 | 0.9 | 0.00 | 0.00 | 0.00 | 91 | 1009.9 |
| 20260906104602 | 65 | 16 | 0.0 | 0.9 | 0.00 | 0.00 | 0.00 | 91 | 1009.9 |
| 20260906104403 | 65 | 6 | 0.9 | 3.5 | 0.00 | 0.00 | 0.00 | 91 | 1009.9 |
| 20260906104202 | 65 | 7 | 0.0 | 3.5 | 0.00 | 0.00 | 0.00 | 90 | 1009.9 |
| 20260906104103 | 65 | 6 | 0.0 | 3.5 | 0.00 | 0.00 | 0.00 | 91 | 1009.9 |
| 20260906104003 | 65 | 6 | 0.0 | 3.5 | 0.00 | 0.00 | 0.00 | 90 | 1009.9 |
| 20260906103902 | 65 | 6 | 0.0 | 3.5 | 0.00 | 0.00 | 0.00 | 90 | 1011.0 |
| 20260906103803 | 65 | 12 | 0.0 | 3.5 | 0.00 | 0.00 | 0.00 | 90 | 1011.0 |
| 20260906103702 | 65 | 12 | 0.0 | 3.5 | 0.00 | 0.00 | 0.00 | 90 | 1011.0 |
| 20260906103603 | 65 | 12 | 2.6 | 3.5 | 0.00 | 0.00 | 0.00 | 90 | 1011.0 |
| 20260906103403 | 65 | 12 | 0.0 | 3.5 | 0.00 | 0.00 | 0.00 | 90 | 1011.0 |
| 20260906103302 | 65 | 22 | 0.0 | 3.5 | 0.00 | 0.00 | 0.00 | 90 | 1011.0 |
| 20260906103203 | 65 | 22 | 0.0 | 3.5 | 0.00 | 0.00 | 0.00 | 90 | 1011.0 |
| 20260906103103 | 65 | 22 | 0.0 | 3.5 | 0.00 | 0.00 | 0.00 | 90 | 1011.0 |
| 20260906103003 | 65 | 22 | 0.0 | 3.5 | 0.00 | 0.00 | 0.00 | 90 | 1011.0 |
| 20260906102803 | 65 | 1 | 0.0 | 3.5 | 0.00 | 0.00 | 0.00 | 90 | 1011.0 |
| 20260906102703 | 65 | 1 | 0.0 | 3.5 | 0.00 | 0.00 | 0.00 | 90 | 1011.0 |
| 20260906102603 | 65 | 1 | 0.9 | 3.5 | 0.00 | 0.00 | 0.00 | 90 | 1011.0 |
| 20260906102503 | 65 | 1 | 0.9 | 3.5 | 0.00 | 0.00 | 0.00 | 90 | 1011.0 |
| 20260906102306 | 65 | 1 | 0.9 | 7.0 | 0.00 | 0.00 | 0.00 | 88 | 1009.9 |
| 20260906102103 | 65 | 2 | 0.9 | 7.0 | 0.00 | 0.00 | 0.00 | 88 | 1009.9 |
| 20260906102003 | 65 | 4 | 3.5 | 7.0 | 0.00 | 0.00 | 0.00 | 90 | 1009.9 |
| 20260906101903 | 65 | 6 | 3.5 | 7.0 | 0.00 | 0.00 | 0.00 | 88 | 1009.9 |
| 20260906101803 | 65 | 9 | 2.6 | 7.0 | 0.00 | 0.00 | 0.00 | 88 | 1009.9 |
| 20260906101703 | 65 | 9 | 2.6 | 7.0 | 0.00 | 0.00 | 0.00 | 88 | 1009.9 |
| 20260906101603 | 65 | 9 | 2.6 | 7.0 | 0.00 | 0.00 | 0.00 | 88 | 1009.9 |
| 20260906101503 | 65 | 9 | 2.6 | 7.0 | 0.00 | 0.00 | 0.00 | 88 | 1009.9 |
| 20260906101402 | 65 | 10 | 4.3 | 7.0 | 0.00 | 0.00 | 0.00 | 88 | 1009.9 |
| 20260906101202 | 65 | 14 | 4.3 | 7.0 | 0.00 | 0.00 | 0.00 | 90 | 1009.9 |
| 20260906101103 | 65 | 23 | 4.3 | 3.5 | 0.00 | 0.00 | 0.00 | 88 | 1009.9 |
| 20260906101003 | 65 | 22 | 4.3 | 3.5 | 0.00 | 0.00 | 0.00 | 90 | 1009.9 |
| 20260906100803 | 65 | 1 | 2.6 | 4.3 | 0.00 | 0.00 | 0.00 | 88 | 1009.9 |
| 20260906100603 | 65 | 1 | 2.6 | 4.3 | 0.00 | 0.00 | 0.00 | 90 | 1009.9 |
| 20260906100503 | 65 | 1 | 2.6 | 4.3 | 0.00 | 0.00 | 0.00 | 90 | 1009.9 |
| 20260906100303 | 65 | 1 | 2.6 | 4.3 | 0.00 | 0.00 | 0.00 | 90 | 1009.9 |
| 20260906100202 | 65 | 1 | 2.6 | 4.3 | 0.00 | 0.00 | 0.00 | 91 | 1009.9 |
| 20260906100103 | 65 | 1 | 2.6 | 4.3 | 0.00 | 0.00 | 0.00 | 91 | 1009.9 |
| 20260906100004 | 65 | 1 | 2.6 | 4.3 | 0.00 | 0.00 | 0.00 | 90 | 1009.9 |
| 20260906095902 | 65 | 1 | 2.6 | 4.3 | 0.00 | 0.00 | 0.00 | 88 | 1009.9 |
| 20260906095603 | 65 | 0 | 0.0 | 0.0 | 0.00 | 0.00 | 0.00 | 87 | 1009.9 |
| 20260906095502 | 65 | 0 | 0.0 | 0.0 | 0.00 | 0.00 | 0.00 | 87 | 1009.9 |
| 20260906095403 | 64 | 0 | 0.0 | 0.0 | 0.00 | 0.00 | 0.00 | 88 | 1011.0 |
| 20260906095305 | 64 | 0 | 0.0 | 0.0 | 0.00 | 0.00 | 0.00 | 88 | 1011.0 |
| 20260906095203 | 64 | 0 | 0.0 | 0.0 | 0.00 | 0.00 | 0.00 | 88 | 1011.0 |
| 20260906095102 | 64 | 0 | 0.0 | 0.0 | 0.00 | 0.00 | 0.00 | 87 | 1011.0 |
| 20260906095003 | 64 | 0 | 0.0 | 0.0 | 0.00 | 0.00 | 0.00 | 87 | 1011.0 |
| 20260906094903 | 64 | 0 | 0.0 | 0.0 | 0.00 | 0.00 | 0.00 | 87 | 1011.0 |
| 20260906094703 | 64 | 0 | 0.0 | 0.0 | 0.00 | 0.00 | 0.00 | 85 | 1011.0 |
| 20260906094603 | 64 | 0 | 0.0 | 0.0 | 0.00 | 0.00 | 0.00 | 85 | 1011.0 |
| 20260906094403 | 64 | 0 | 0.0 | 0.0 | 0.00 | 0.00 | 0.00 | 85 | 1011.0 |
| 20260906094302 | 64 | 0 | 0.0 | 0.0 | 0.00 | 0.00 | 0.00 | 85 | 1011.0 |
| 20260906094203 | 64 | 0 | 0.0 | 0.0 | 0.00 | 0.00 | 0.00 | 84 | 1011.0 |
| 20260906094102 | 64 | 0 | 0.0 | 0.0 | 0.00 | 0.00 | 0.00 | 84 | 1011.0 |
| 20260906093903 | 64 | 0 | 0.0 | 0.0 | 0.00 | 0.00 | 0.00 | 84 | 1009.9 |
| 20260906093803 | 64 | 0 | 0.0 | 0.0 | 0.00 | 0.00 | 0.00 | 84 | 1009.9 |
| 20260906093703 | 64 | 0 | 0.0 | 0.0 | 0.00 | 0.00 | 0.00 | 83 | 1009.9 |
| 20260906093603 | 64 | 225 | 0.0 | 2.6 | 0.00 | 0.00 | 0.00 | 83 | 1009.9 |
| 20260906093403 | 64 | 225 | 0.0 | 2.6 | 0.00 | 0.00 | 0.00 | 83 | 1009.9 |
| 20260906093303 | 64 | 225 | 0.0 | 2.6 | 0.00 | 0.00 | 0.00 | 82 | 1009.9 |
| 20260906093203 | 64 | 225 | 0.0 | 2.6 | 0.00 | 0.00 | 0.00 | 83 | 1009.9 |
| 20260906093102 | 64 | 225 | 0.0 | 2.6 | 0.00 | 0.00 | 0.00 | 83 | 1009.9 |
| 20260906093003 | 64 | 225 | 0.0 | 2.6 | 0.00 | 0.00 | 0.00 | 83 | 1009.9 |
| 20260906092803 | 64 | 225 | 1.7 | 2.6 | 0.00 | 0.00 | 0.00 | 83 | 1009.9 |
| 20260906092703 | 64 | 225 | 0.0 | 2.6 | 0.00 | 0.00 | 0.00 | 83 | 1009.9 |
| 20260906092603 | 64 | 225 | 0.0 | 2.6 | 0.00 | 0.00 | 0.00 | 83 | 1009.9 |
| 20260906092503 | 64 | 225 | 0.0 | 2.6 | 0.00 | 0.00 | 0.00 | 83 | 1009.9 |
| 20260906092403 | 64 | 225 | 0.9 | 2.6 | 0.00 | 0.00 | 0.00 | 83 | 1009.9 |
| 20260906092306 | 64 | 225 | 0.0 | 2.6 | 0.00 | 0.00 | 0.00 | 83 | 1009.9 |
| 20260906092203 | 64 | 0 | 0.0 | 0.0 | 0.00 | 0.00 | 0.00 | 83 | 1009.9 |
| 20260906092103 | 64 | 0 | 0.0 | 0.0 | 0.00 | 0.00 | 0.00 | 83 | 1009.9 |
| 20260906092003 | 64 | 0 | 0.0 | 0.0 | 0.00 | 0.00 | 0.00 | 83 | 1009.9 |
| 20260906091903 | 64 | 0 | 0.0 | 0.0 | 0.00 | 0.00 | 0.00 | 83 | 1009.9 |
| 20260906091803 | 65 | 0 | 0.0 | 0.0 | 0.00 | 0.00 | 0.00 | 82 | 1009.9 |
| 20260906091703 | 65 | 0 | 0.0 | 0.0 | 0.00 | 0.00 | 0.00 | 82 | 1009.9 |
| 20260906091603 | 65 | 0 | 0.0 | 0.0 | 0.00 | 0.00 | 0.00 | 82 | 1009.9 |
| 20260906091503 | 65 | 0 | 0.0 | 0.0 | 0.00 | 0.00 | 0.00 | 82 | 1009.9 |
| 20260906091403 | 65 | 0 | 0.0 | 0.0 | 0.00 | 0.00 | 0.00 | 82 | 1009.9 |
| 20260906091203 | 65 | 0 | 0.0 | 0.0 | 0.00 | 0.00 | 0.00 | 82 | 1009.9 |
| 20260906091103 | 65 | 0 | 0.0 | 0.0 | 0.00 | 0.00 | 0.00 | 82 | 1009.9 |
| 20260906090903 | 64 | 0 | 0.0 | 0.0 | 0.00 | 0.00 | 0.00 | 82 | 1009.9 |
| 20260906090703 | 64 | 112 | 0.0 | 0.9 | 0.00 | 0.00 | 0.00 | 82 | 1009.9 |
| 20260906090603 | 64 | 112 | 0.0 | 0.9 | 0.00 | 0.00 | 0.00 | 82 | 1009.9 |
| 20260906090503 | 64 | 112 | 0.0 | 0.9 | 0.00 | 0.00 | 0.00 | 82 | 1009.9 |
| 20260906090302 | 65 | 112 | 0.0 | 0.9 | 0.00 | 0.00 | 0.00 | 82 | 1009.9 |
| 20260906090203 | 65 | 112 | 0.0 | 0.9 | 0.00 | 0.00 | 0.00 | 81 | 1009.9 |
| 20260906090004 | 65 | 112 | 0.0 | 0.9 | 0.00 | 0.00 | 0.00 | 81 | 1009.9 |
| 20260906085903 | 65 | 112 | 0.0 | 0.9 | 0.00 | 0.00 | 0.00 | 81 | 1009.9 |
| 20260906085803 | 65 | 112 | 0.0 | 0.9 | 0.00 | 0.00 | 0.00 | 81 | 1009.9 |
| 20260906085703 | 65 | 0 | 0.0 | 0.0 | 0.00 | 0.00 | 0.00 | 81 | 1009.9 |
| 20260906085603 | 65 | 0 | 0.0 | 0.0 | 0.00 | 0.00 | 0.00 | 82 | 1009.9 |
| 20260906085503 | 65 | 0 | 0.0 | 0.0 | 0.00 | 0.00 | 0.00 | 82 | 1009.9 |
| 20260906085306 | 65 | 0 | 0.0 | 0.0 | 0.00 | 0.00 | 0.00 | 82 | 1009.9 |
| 20260906085203 | 65 | 0 | 0.0 | 0.0 | 0.00 | 0.00 | 0.00 | 82 | 1009.9 |
| 20260906085103 | 65 | 0 | 0.0 | 0.0 | 0.00 | 0.00 | 0.00 | 82 | 1009.9 |
| 20260906085004 | 65 | 0 | 0.0 | 0.0 | 0.00 | 0.00 | 0.00 | 83 | 1009.9 |
| 20260906084903 | 65 | 0 | 0.0 | 0.0 | 0.00 | 0.00 | 0.00 | 83 | 1009.9 |
| 20260906084802 | 65 | 0 | 0.0 | 0.0 | 0.00 | 0.00 | 0.00 | 83 | 1009.9 |
| 20260906084703 | 65 | 0 | 0.0 | 0.0 | 0.00 | 0.00 | 0.00 | 83 | 1009.9 |
| 20260906084603 | 65 | 0 | 0.0 | 0.0 | 0.00 | 0.00 | 0.00 | 83 | 1009.9 |
| 20260906084503 | 65 | 0 | 0.0 | 0.0 | 0.00 | 0.00 | 0.00 | 83 | 1009.9 |
| 20260906084403 | 65 | 0 | 0.0 | 0.0 | 0.00 | 0.00 | 0.00 | 83 | 1009.9 |
| 20260906084302 | 65 | 0 | 0.0 | 0.0 | 0.00 | 0.00 | 0.00 | 83 | 1009.9 |
| 20260906084103 | 65 | 331 | 0.0 | 3.5 | 0.00 | 0.00 | 0.00 | 82 | 1009.9 |
| 20260906084003 | 65 | 331 | 0.0 | 3.5 | 0.00 | 0.00 | 0.00 | 82 | 1009.9 |
| 20260906083903 | 65 | 341 | 0.0 | 3.5 | 0.00 | 0.00 | 0.00 | 82 | 1009.9 |
| 20260906083803 | 65 | 336 | 0.0 | 3.5 | 0.00 | 0.00 | 0.00 | 82 | 1009.9 |
| 20260906083703 | 65 | 330 | 0.0 | 3.5 | 0.00 | 0.00 | 0.00 | 82 | 1009.9 |
| 20260906083603 | 65 | 330 | 0.0 | 3.5 | 0.00 | 0.00 | 0.00 | 82 | 1009.9 |
| 20260906083503 | 65 | 327 | 0.0 | 6.1 | 0.00 | 0.00 | 0.00 | 81 | 1009.9 |
| 20260906083403 | 65 | 328 | 0.0 | 6.1 | 0.00 | 0.00 | 0.00 | 82 | 1009.9 |
| 20260906083303 | 65 | 328 | 1.7 | 6.1 | 0.00 | 0.00 | 0.00 | 82 | 1009.9 |
| 20260906083203 | 65 | 328 | 1.7 | 6.1 | 0.00 | 0.00 | 0.00 | 82 | 1009.9 |
| 20260906083003 | 65 | 328 | 0.9 | 6.1 | 0.00 | 0.00 | 0.00 | 82 | 1009.9 |
| 20260906082903 | 65 | 320 | 2.6 | 6.1 | 0.00 | 0.00 | 0.00 | 81 | 1009.9 |
| 20260906082802 | 65 | 321 | 2.6 | 6.1 | 0.00 | 0.00 | 0.00 | 82 | 1009.9 |
| 20260906082703 | 65 | 325 | 1.7 | 6.1 | 0.00 | 0.00 | 0.00 | 81 | 1009.9 |
| 20260906082503 | 65 | 337 | 0.9 | 1.7 | 0.00 | 0.00 | 0.00 | 81 | 1009.9 |
| 20260906082305 | 65 | 343 | 0.0 | 1.7 | 0.00 | 0.00 | 0.00 | 81 | 1008.8 |
| 20260906082203 | 65 | 351 | 0.0 | 0.9 | 0.00 | 0.00 | 0.00 | 80 | 1008.8 |
| 20260906082103 | 65 | 341 | 0.0 | 0.9 | 0.00 | 0.00 | 0.00 | 80 | 1008.8 |
| 20260906082003 | 65 | 341 | 0.0 | 0.9 | 0.00 | 0.00 | 0.00 | 80 | 1008.8 |
| 20260906081903 | 65 | 349 | 0.0 | 1.7 | 0.00 | 0.00 | 0.00 | 80 | 1008.8 |
| 20260906081802 | 65 | 349 | 0.0 | 1.7 | 0.00 | 0.00 | 0.00 | 80 | 1008.8 |
| 20260906081703 | 65 | 351 | 0.0 | 1.7 | 0.00 | 0.00 | 0.00 | 80 | 1008.8 |
| 20260906081603 | 65 | 326 | 0.9 | 5.2 | 0.00 | 0.00 | 0.00 | 80 | 1008.8 |
| 20260906081503 | 65 | 321 | 0.9 | 6.1 | 0.00 | 0.00 | 0.00 | 80 | 1008.8 |
| 20260906081403 | 65 | 320 | 0.9 | 6.1 | 0.00 | 0.00 | 0.00 | 80 | 1008.8 |
| 20260906081303 | 65 | 326 | 0.0 | 6.1 | 0.00 | 0.00 | 0.00 | 80 | 1008.8 |
| 20260906081203 | 65 | 326 | 0.0 | 6.1 | 0.00 | 0.00 | 0.00 | 80 | 1008.8 |
| 20260906081004 | 66 | 324 | 0.0 | 7.0 | 0.00 | 0.00 | 0.00 | 81 | 1008.8 |
| 20260906080903 | 66 | 324 | 0.0 | 7.0 | 0.00 | 0.00 | 0.00 | 81 | 1008.8 |
| 20260906080803 | 66 | 326 | 0.0 | 9.6 | 0.00 | 0.00 | 0.00 | 81 | 1008.8 |
| 20260906080703 | 66 | 326 | 0.0 | 9.6 | 0.00 | 0.00 | 0.00 | 81 | 1008.8 |
| 20260906080602 | 66 | 325 | 3.5 | 9.6 | 0.00 | 0.00 | 0.00 | 82 | 1008.8 |
| 20260906080503 | 66 | 326 | 1.7 | 9.6 | 0.00 | 0.00 | 0.00 | 82 | 1008.8 |
| 20260906080402 | 66 | 326 | 1.7 | 9.6 | 0.00 | 0.00 | 0.00 | 82 | 1008.8 |
| 20260906080203 | 66 | 324 | 5.2 | 9.6 | 0.00 | 0.00 | 0.00 | 83 | 1008.8 |
| 20260906080103 | 66 | 325 | 5.2 | 9.6 | 0.00 | 0.00 | 0.00 | 83 | 1008.8 |
| 20260906075903 | 66 | 326 | 5.2 | 9.6 | 0.00 | 0.00 | 0.00 | 84 | 1008.8 |
| 20260906075803 | 66 | 324 | 7.0 | 7.8 | 0.00 | 0.00 | 0.00 | 84 | 1008.8 |
| 20260906075703 | 66 | 322 | 7.0 | 7.8 | 0.00 | 0.00 | 0.00 | 83 | 1008.8 |
| 20260906075603 | 66 | 322 | 5.2 | 6.1 | 0.00 | 0.00 | 0.00 | 83 | 1008.8 |
| 20260906075503 | 66 | 320 | 3.5 | 6.1 | 0.00 | 0.00 | 0.00 | 82 | 1008.8 |
| 20260906075404 | 66 | 316 | 3.5 | 6.1 | 0.00 | 0.00 | 0.00 | 82 | 1009.9 |
| 20260906075306 | 66 | 309 | 4.3 | 6.1 | 0.00 | 0.00 | 0.00 | 80 | 1009.9 |
| 20260906075203 | 66 | 302 | 0.9 | 6.1 | 0.00 | 0.00 | 0.00 | 79 | 1009.9 |
| 20260906075103 | 65 | 300 | 0.9 | 6.1 | 0.00 | 0.00 | 0.00 | 80 | 1009.9 |
| 20260906074703 | 65 | 295 | 0.0 | 3.5 | 0.00 | 0.00 | 0.00 | 79 | 1009.9 |
| 20260906074602 | 66 | 295 | 0.9 | 3.5 | 0.00 | 0.00 | 0.00 | 79 | 1009.9 |
| 20260906074503 | 66 | 298 | 1.7 | 3.5 | 0.00 | 0.00 | 0.00 | 79 | 1009.9 |
| 20260906074403 | 66 | 314 | 0.0 | 3.5 | 0.00 | 0.00 | 0.00 | 79 | 1009.9 |
| 20260906074303 | 66 | 301 | 0.0 | 4.3 | 0.00 | 0.00 | 0.00 | 79 | 1009.9 |
| 20260906074203 | 66 | 265 | 0.0 | 7.0 | 0.00 | 0.00 | 0.00 | 79 | 1009.9 |
| 20260906074103 | 66 | 256 | 0.0 | 7.0 | 0.00 | 0.00 | 0.00 | 79 | 1009.9 |
| 20260906073903 | 66 | 261 | 1.7 | 7.0 | 0.00 | 0.00 | 0.00 | 79 | 1009.9 |
| 20260906073703 | 66 | 251 | 0.0 | 7.0 | 0.00 | 0.00 | 0.00 | 79 | 1009.9 |
| 20260906073503 | 66 | 251 | 0.9 | 7.0 | 0.00 | 0.00 | 0.00 | 79 | 1009.9 |
| 20260906073403 | 66 | 248 | 2.6 | 7.0 | 0.00 | 0.00 | 0.00 | 79 | 1009.9 |
| 20260906073303 | 66 | 250 | 2.6 | 7.0 | 0.00 | 0.00 | 0.00 | 77 | 1009.9 |
| 20260906073203 | 66 | 260 | 3.5 | 7.0 | 0.00 | 0.00 | 0.00 | 76 | 1009.9 |
| 20260906073103 | 66 | 268 | 2.6 | 4.3 | 0.00 | 0.00 | 0.00 | 76 | 1009.9 |
| 20260906073004 | 66 | 292 | 0.0 | 4.3 | 0.00 | 0.00 | 0.00 | 77 | 1009.9 |
| 20260906072903 | 66 | 0 | 0.0 | 0.0 | 0.00 | 0.00 | 0.00 | 76 | 1009.9 |
| 20260906072803 | 66 | 0 | 0.0 | 0.0 | 0.00 | 0.00 | 0.00 | 77 | 1009.9 |
| 20260906072703 | 66 | 0 | 0.0 | 0.0 | 0.00 | 0.00 | 0.00 | 77 | 1009.9 |
| 20260906072503 | 66 | 0 | 0.0 | 0.0 | 0.00 | 0.00 | 0.00 | 77 | 1009.9 |
| 20260906072403 | 66 | 0 | 0.0 | 0.0 | 0.00 | 0.00 | 0.00 | 76 | 1011.0 |
| 20260906072305 | 66 | 337 | 0.0 | 3.5 | 0.00 | 0.00 | 0.00 | 76 | 1011.0 |
| 20260906072202 | 66 | 337 | 0.0 | 3.5 | 0.00 | 0.00 | 0.00 | 76 | 1011.0 |
| 20260906072103 | 66 | 337 | 0.0 | 3.5 | 0.00 | 0.00 | 0.00 | 76 | 1011.0 |
| 20260906072004 | 66 | 297 | 0.0 | 3.5 | 0.00 | 0.00 | 0.00 | 76 | 1011.0 |
| 20260906071903 | 65 | 262 | 0.0 | 3.5 | 0.00 | 0.00 | 0.00 | 75 | 1011.0 |
| 20260906071803 | 65 | 262 | 0.0 | 3.5 | 0.00 | 0.00 | 0.00 | 75 | 1011.0 |
| 20260906071703 | 65 | 262 | 0.0 | 3.5 | 0.00 | 0.00 | 0.00 | 75 | 1011.0 |
| 20260906071603 | 65 | 262 | 0.0 | 3.5 | 0.00 | 0.00 | 0.00 | 75 | 1011.0 |
| 20260906071503 | 65 | 262 | 0.0 | 3.5 | 0.00 | 0.00 | 0.00 | 75 | 1011.0 |
| 20260906071403 | 66 | 262 | 0.0 | 3.5 | 0.00 | 0.00 | 0.00 | 75 | 1011.0 |
| 20260906071303 | 66 | 248 | 0.0 | 2.6 | 0.00 | 0.00 | 0.00 | 75 | 1011.0 |
| 20260906071103 | 66 | 248 | 0.0 | 2.6 | 0.00 | 0.00 | 0.00 | 75 | 1011.0 |
| 20260906070903 | 66 | 0 | 0.0 | 0.0 | 0.00 | 0.00 | 0.00 | 75 | 1011.0 |
| 20260906070803 | 66 | 0 | 0.0 | 0.0 | 0.00 | 0.00 | 0.00 | 75 | 1011.0 |
| 20260906070703 | 66 | 0 | 0.0 | 0.0 | 0.00 | 0.00 | 0.00 | 75 | 1011.0 |
| 20260906070603 | 66 | 0 | 0.0 | 0.0 | 0.00 | 0.00 | 0.00 | 75 | 1011.0 |
| 20260906070504 | 66 | 0 | 0.0 | 0.0 | 0.00 | 0.00 | 0.00 | 75 | 1011.0 |
| 20260906070403 | 66 | 0 | 0.0 | 0.0 | 0.00 | 0.00 | 0.00 | 75 | 1011.0 |
| 20260906070303 | 66 | 0 | 0.0 | 0.0 | 0.00 | 0.00 | 0.00 | 75 | 1011.0 |
| 20260906070203 | 66 | 0 | 0.0 | 0.0 | 0.00 | 0.00 | 0.00 | 75 | 1011.0 |
| 20260906070004 | 66 | 0 | 0.0 | 0.0 | 0.00 | 0.00 | 0.00 | 75 | 1011.0 |
| 20260906065902 | 66 | 0 | 0.0 | 0.0 | 0.00 | 0.00 | 0.00 | 75 | 1011.0 |
| 20260906065803 | 66 | 0 | 0.0 | 0.0 | 0.00 | 0.00 | 0.00 | 75 | 1011.0 |
| 20260906065703 | 66 | 0 | 0.0 | 0.0 | 0.00 | 0.00 | 0.00 | 74 | 1011.0 |
| 20260906065602 | 66 | 0 | 0.0 | 0.0 | 0.00 | 0.00 | 0.00 | 74 | 1011.0 |
| 20260906065403 | 66 | 0 | 0.0 | 0.0 | 0.00 | 0.00 | 0.00 | 74 | 1009.9 |
| 20260906065305 | 66 | 0 | 0.0 | 0.0 | 0.00 | 0.00 | 0.00 | 74 | 1009.9 |
| 20260906065203 | 66 | 0 | 0.0 | 0.0 | 0.00 | 0.00 | 0.00 | 73 | 1009.9 |
| 20260906065003 | 66 | 0 | 0.0 | 0.0 | 0.00 | 0.00 | 0.00 | 73 | 1009.9 |
| 20260906064903 | 66 | 0 | 0.0 | 0.0 | 0.00 | 0.00 | 0.00 | 73 | 1009.9 |
| 20260906064803 | 66 | 0 | 0.0 | 0.0 | 0.00 | 0.00 | 0.00 | 73 | 1009.9 |
| 20260906064703 | 67 | 0 | 0.0 | 0.0 | 0.00 | 0.00 | 0.00 | 73 | 1009.9 |
| 20260906064602 | 67 | 0 | 0.0 | 0.0 | 0.00 | 0.00 | 0.00 | 73 | 1009.9 |
| 20260906064503 | 67 | 0 | 0.0 | 0.0 | 0.00 | 0.00 | 0.00 | 73 | 1009.9 |
| 20260906064403 | 67 | 0 | 0.0 | 0.0 | 0.00 | 0.00 | 0.00 | 73 | 1009.9 |
| 20260906064303 | 67 | 0 | 0.0 | 0.0 | 0.00 | 0.00 | 0.00 | 73 | 1009.9 |
| 20260906064203 | 67 | 0 | 0.0 | 0.0 | 0.00 | 0.00 | 0.00 | 73 | 1009.9 |
| 20260906064103 | 67 | 0 | 0.0 | 0.0 | 0.00 | 0.00 | 0.00 | 73 | 1009.9 |
| 20260906063903 | 67 | 0 | 0.0 | 0.0 | 0.00 | 0.00 | 0.00 | 73 | 1009.9 |
| 20260906063803 | 67 | 0 | 0.0 | 0.0 | 0.00 | 0.00 | 0.00 | 73 | 1009.9 |
| 20260906063703 | 67 | 0 | 0.0 | 0.0 | 0.00 | 0.00 | 0.00 | 73 | 1009.9 |
| 20260906063503 | 67 | 0 | 0.0 | 0.0 | 0.00 | 0.00 | 0.00 | 72 | 1009.9 |
| 20260906063402 | 67 | 0 | 0.0 | 0.0 | 0.00 | 0.00 | 0.00 | 73 | 1009.9 |
| 20260906063303 | 67 | 0 | 0.0 | 0.0 | 0.00 | 0.00 | 0.00 | 73 | 1009.9 |
| 20260906063203 | 67 | 0 | 0.0 | 0.0 | 0.00 | 0.00 | 0.00 | 73 | 1009.9 |
| 20260906063103 | 67 | 0 | 0.0 | 0.0 | 0.00 | 0.00 | 0.00 | 72 | 1009.9 |
| 20260906062903 | 67 | 0 | 0.0 | 0.0 | 0.00 | 0.00 | 0.00 | 72 | 1009.9 |
| 20260906062803 | 67 | 0 | 0.0 | 0.0 | 0.00 | 0.00 | 0.00 | 72 | 1009.9 |
| 20260906062703 | 67 | 0 | 0.0 | 0.0 | 0.00 | 0.00 | 0.00 | 72 | 1009.9 |
| 20260906062603 | 67 | 0 | 0.0 | 0.0 | 0.00 | 0.00 | 0.00 | 72 | 1009.9 |
| 20260906062503 | 67 | 0 | 0.0 | 0.0 | 0.00 | 0.00 | 0.00 | 72 | 1009.9 |
| 20260906062403 | 67 | 0 | 0.0 | 0.0 | 0.00 | 0.00 | 0.00 | 72 | 1009.9 |
| 20260906062305 | 67 | 0 | 0.0 | 0.0 | 0.00 | 0.00 | 0.00 | 72 | 1009.9 |
| 20260906062103 | 67 | 0 | 0.0 | 0.0 | 0.00 | 0.00 | 0.00 | 72 | 1009.9 |
| 20260906062003 | 67 | 0 | 0.0 | 0.0 | 0.00 | 0.00 | 0.00 | 72 | 1009.9 |
| 20260906061903 | 67 | 0 | 0.0 | 0.0 | 0.00 | 0.00 | 0.00 | 72 | 1009.9 |
| 20260906061703 | 67 | 0 | 0.0 | 0.0 | 0.00 | 0.00 | 0.00 | 72 | 1009.9 |
| 20260906061603 | 67 | 0 | 0.0 | 0.0 | 0.00 | 0.00 | 0.00 | 72 | 1009.9 |
| 20260906061403 | 67 | 0 | 0.0 | 0.0 | 0.00 | 0.00 | 0.00 | 72 | 1009.9 |
| 20260906061303 | 67 | 0 | 0.0 | 0.0 | 0.00 | 0.00 | 0.00 | 72 | 1009.9 |
| 20260906061203 | 68 | 0 | 0.0 | 0.0 | 0.00 | 0.00 | 0.00 | 72 | 1009.9 |
| 20260906061103 | 68 | 0 | 0.0 | 0.0 | 0.00 | 0.00 | 0.00 | 72 | 1009.9 |
| 20260906060903 | 68 | 0 | 0.0 | 0.0 | 0.00 | 0.00 | 0.00 | 72 | 1009.9 |
| 20260906060802 | 68 | 0 | 0.0 | 0.0 | 0.00 | 0.00 | 0.00 | 72 | 1009.9 |
| 20260906060703 | 68 | 0 | 0.0 | 0.0 | 0.00 | 0.00 | 0.00 | 72 | 1009.9 |
| 20260906060503 | 68 | 0 | 0.0 | 0.0 | 0.00 | 0.00 | 0.00 | 70 | 1009.9 |
| 20260906060403 | 68 | 0 | 0.0 | 0.0 | 0.00 | 0.00 | 0.00 | 70 | 1009.9 |
| 20260906060303 | 68 | 0 | 0.0 | 0.0 | 0.00 | 0.00 | 0.00 | 70 | 1009.9 |
| 20260906060203 | 68 | 0 | 0.0 | 0.0 | 0.00 | 0.00 | 0.00 | 70 | 1009.9 |
| 20260906060103 | 68 | 0 | 0.0 | 0.0 | 0.00 | 0.00 | 0.00 | 70 | 1009.9 |
| 20260906060005 | 68 | 0 | 0.0 | 0.0 | 0.00 | 0.00 | 0.00 | 70 | 1009.9 |
| 20260906055903 | 68 | 0 | 0.0 | 0.0 | 0.00 | 0.00 | 0.00 | 70 | 1009.9 |
| 20260906055803 | 68 | 0 | 0.0 | 0.0 | 0.00 | 0.00 | 0.00 | 70 | 1009.9 |
| 20260906055702 | 68 | 0 | 0.0 | 0.0 | 0.00 | 0.00 | 0.00 | 69 | 1009.9 |
| 20260906055603 | 68 | 0 | 0.0 | 0.0 | 0.00 | 0.00 | 0.00 | 69 | 1009.9 |
| 20260906055503 | 68 | 0 | 0.0 | 0.0 | 0.00 | 0.00 | 0.00 | 69 | 1009.9 |
| 20260906055403 | 68 | 0 | 0.0 | 0.0 | 0.00 | 0.00 | 0.00 | 69 | 1011.0 |
| 20260906055306 | 68 | 0 | 0.0 | 0.0 | 0.00 | 0.00 | 0.00 | 69 | 1011.0 |
| 20260906055203 | 68 | 0 | 0.0 | 0.0 | 0.00 | 0.00 | 0.00 | 69 | 1011.0 |
| 20260906055003 | 68 | 0 | 0.0 | 0.0 | 0.00 | 0.00 | 0.00 | 69 | 1011.0 |
| 20260906054903 | 68 | 0 | 0.0 | 0.0 | 0.00 | 0.00 | 0.00 | 69 | 1011.0 |
| 20260906054803 | 68 | 0 | 0.0 | 0.0 | 0.00 | 0.00 | 0.00 | 69 | 1011.0 |
| 20260906054703 | 68 | 0 | 0.0 | 0.0 | 0.00 | 0.00 | 0.00 | 69 | 1011.0 |
| 20260906054603 | 68 | 0 | 0.0 | 0.0 | 0.00 | 0.00 | 0.00 | 69 | 1011.0 |
| 20260906054503 | 68 | 0 | 0.0 | 0.0 | 0.00 | 0.00 | 0.00 | 69 | 1011.0 |
| 20260906054103 | 68 | 0 | 0.0 | 0.0 | 0.00 | 0.00 | 0.00 | 69 | 1011.0 |
| 20260906054003 | 68 | 0 | 0.0 | 0.0 | 0.00 | 0.00 | 0.00 | 69 | 1011.0 |
| 20260906053904 | 68 | 0 | 0.0 | 0.0 | 0.00 | 0.00 | 0.00 | 69 | 1009.9 |
| 20260906053803 | 68 | 0 | 0.0 | 0.0 | 0.00 | 0.00 | 0.00 | 69 | 1009.9 |
| 20260906053703 | 68 | 0 | 0.0 | 0.0 | 0.00 | 0.00 | 0.00 | 69 | 1009.9 |
| 20260906053603 | 69 | 0 | 0.0 | 0.0 | 0.00 | 0.00 | 0.00 | 68 | 1009.9 |
| 20260906053403 | 69 | 0 | 0.0 | 0.0 | 0.00 | 0.00 | 0.00 | 68 | 1009.9 |
| 20260906053303 | 69 | 0 | 0.0 | 0.0 | 0.00 | 0.00 | 0.00 | 68 | 1009.9 |
| 20260906053203 | 69 | 0 | 0.0 | 0.0 | 0.00 | 0.00 | 0.00 | 68 | 1009.9 |
| 20260906053103 | 69 | 0 | 0.0 | 0.0 | 0.00 | 0.00 | 0.00 | 68 | 1009.9 |
| 20260906053003 | 69 | 0 | 0.0 | 0.0 | 0.00 | 0.00 | 0.00 | 68 | 1009.9 |
| 20260906052903 | 69 | 0 | 0.0 | 0.0 | 0.00 | 0.00 | 0.00 | 68 | 1009.9 |
| 20260906052803 | 69 | 0 | 0.0 | 0.0 | 0.00 | 0.00 | 0.00 | 68 | 1009.9 |
| 20260906052702 | 69 | 0 | 0.0 | 0.0 | 0.00 | 0.00 | 0.00 | 68 | 1009.9 |
| 20260906052603 | 69 | 0 | 0.0 | 0.0 | 0.00 | 0.00 | 0.00 | 68 | 1009.9 |
| 20260906052503 | 69 | 0 | 0.0 | 0.0 | 0.00 | 0.00 | 0.00 | 68 | 1009.9 |
| 20260906052402 | 69 | 0 | 0.0 | 0.0 | 0.00 | 0.00 | 0.00 | 68 | 1009.9 |
| 20260906052305 | 69 | 0 | 0.0 | 0.0 | 0.00 | 0.00 | 0.00 | 68 | 1009.9 |
| 20260906052203 | 69 | 0 | 0.0 | 0.0 | 0.00 | 0.00 | 0.00 | 68 | 1009.9 |
| 20260906052103 | 69 | 0 | 0.0 | 0.0 | 0.00 | 0.00 | 0.00 | 68 | 1009.9 |
| 20260906052003 | 69 | 0 | 0.0 | 0.0 | 0.00 | 0.00 | 0.00 | 68 | 1009.9 |
| 20260906051903 | 69 | 0 | 0.0 | 0.0 | 0.00 | 0.00 | 0.00 | 68 | 1009.9 |
| 20260906051803 | 69 | 0 | 0.0 | 0.0 | 0.00 | 0.00 | 0.00 | 68 | 1009.9 |
| 20260906051703 | 69 | 0 | 0.0 | 0.0 | 0.00 | 0.00 | 0.00 | 68 | 1009.9 |
| 20260906051603 | 69 | 123 | 0.0 | 0.9 | 0.00 | 0.00 | 0.00 | 68 | 1009.9 |
| 20260906051503 | 69 | 123 | 0.0 | 0.9 | 0.00 | 0.00 | 0.00 | 68 | 1009.9 |
| 20260906051404 | 69 | 123 | 0.0 | 0.9 | 0.00 | 0.00 | 0.00 | 68 | 1009.9 |
| 20260906051303 | 69 | 123 | 0.0 | 0.9 | 0.00 | 0.00 | 0.00 | 68 | 1009.9 |
| 20260906051203 | 69 | 123 | 0.0 | 0.9 | 0.00 | 0.00 | 0.00 | 68 | 1009.9 |
| 20260906051103 | 69 | 123 | 0.0 | 0.9 | 0.00 | 0.00 | 0.00 | 68 | 1009.9 |
| 20260906050903 | 69 | 123 | 0.0 | 0.9 | 0.00 | 0.00 | 0.00 | 67 | 1009.9 |
| 20260906050803 | 70 | 123 | 0.0 | 0.9 | 0.00 | 0.00 | 0.00 | 67 | 1009.9 |
| 20260906050603 | 69 | 0 | 0.0 | 0.0 | 0.00 | 0.00 | 0.00 | 67 | 1009.9 |
| 20260906050503 | 70 | 0 | 0.0 | 0.0 | 0.00 | 0.00 | 0.00 | 67 | 1009.9 |
| 20260906050403 | 70 | 0 | 0.0 | 0.0 | 0.00 | 0.00 | 0.00 | 67 | 1009.9 |
| 20260906050204 | 70 | 0 | 0.0 | 0.0 | 0.00 | 0.00 | 0.00 | 67 | 1009.9 |
| 20260906050004 | 70 | 0 | 0.0 | 0.0 | 0.00 | 0.00 | 0.00 | 67 | 1009.9 |
| 20260906045903 | 70 | 0 | 0.0 | 0.0 | 0.00 | 0.00 | 0.00 | 66 | 1009.9 |
| 20260906045703 | 70 | 0 | 0.0 | 0.0 | 0.00 | 0.00 | 0.00 | 66 | 1009.9 |
| 20260906045403 | 70 | 0 | 0.0 | 0.0 | 0.00 | 0.00 | 0.00 | 66 | 1011.0 |
| 20260906045306 | 70 | 0 | 0.0 | 0.0 | 0.00 | 0.00 | 0.00 | 66 | 1011.0 |
| 20260906045102 | 70 | 0 | 0.0 | 0.0 | 0.00 | 0.00 | 0.00 | 66 | 1011.0 |
| 20260906044803 | 70 | 0 | 0.0 | 0.0 | 0.00 | 0.00 | 0.00 | 66 | 1011.0 |
| 20260906044703 | 70 | 0 | 0.0 | 0.0 | 0.00 | 0.00 | 0.00 | 66 | 1011.0 |
| 20260906044503 | 70 | 0 | 0.0 | 0.0 | 0.00 | 0.00 | 0.00 | 66 | 1011.0 |
| 20260906044303 | 71 | 0 | 0.0 | 0.0 | 0.00 | 0.00 | 0.00 | 66 | 1011.0 |
| 20260906044203 | 71 | 0 | 0.0 | 0.0 | 0.00 | 0.00 | 0.00 | 66 | 1011.0 |
| 20260906044103 | 71 | 0 | 0.0 | 0.0 | 0.00 | 0.00 | 0.00 | 66 | 1011.0 |
| 20260906044004 | 71 | 0 | 0.0 | 0.0 | 0.00 | 0.00 | 0.00 | 66 | 1011.0 |
| 20260906043803 | 71 | 0 | 0.0 | 0.0 | 0.00 | 0.00 | 0.00 | 66 | 1011.0 |
| 20260906043703 | 71 | 0 | 0.0 | 0.0 | 0.00 | 0.00 | 0.00 | 66 | 1011.0 |
| 20260906043603 | 71 | 0 | 0.0 | 0.0 | 0.00 | 0.00 | 0.00 | 66 | 1011.0 |
| 20260906043503 | 71 | 0 | 0.0 | 0.0 | 0.00 | 0.00 | 0.00 | 66 | 1011.0 |
| 20260906043303 | 71 | 0 | 0.0 | 0.0 | 0.00 | 0.00 | 0.00 | 66 | 1011.0 |
| 20260906043202 | 71 | 0 | 0.0 | 0.0 | 0.00 | 0.00 | 0.00 | 66 | 1011.0 |
| 20260906043103 | 71 | 0 | 0.0 | 0.0 | 0.00 | 0.00 | 0.00 | 66 | 1011.0 |
| 20260906042903 | 71 | 0 | 0.0 | 0.0 | 0.00 | 0.00 | 0.00 | 66 | 1011.0 |
| 20260906042803 | 71 | 0 | 0.0 | 0.0 | 0.00 | 0.00 | 0.00 | 66 | 1011.0 |
| 20260906042703 | 71 | 0 | 0.0 | 0.0 | 0.00 | 0.00 | 0.00 | 66 | 1011.0 |
| 20260906042603 | 71 | 0 | 0.0 | 0.0 | 0.00 | 0.00 | 0.00 | 66 | 1011.0 |
| 20260906042503 | 71 | 0 | 0.0 | 0.0 | 0.00 | 0.00 | 0.00 | 66 | 1011.0 |
| 20260906042403 | 71 | 0 | 0.0 | 0.0 | 0.00 | 0.00 | 0.00 | 66 | 1011.0 |
| 20260906042306 | 71 | 0 | 0.0 | 0.0 | 0.00 | 0.00 | 0.00 | 68 | 1011.0 |
| 20260906042203 | 71 | 0 | 0.0 | 0.0 | 0.00 | 0.00 | 0.00 | 68 | 1011.0 |
| 20260906042103 | 71 | 0 | 0.0 | 0.0 | 0.00 | 0.00 | 0.00 | 67 | 1011.0 |
| 20260906042004 | 71 | 0 | 0.0 | 0.0 | 0.00 | 0.00 | 0.00 | 67 | 1011.0 |
| 20260906041903 | 71 | 0 | 0.0 | 0.0 | 0.00 | 0.00 | 0.00 | 67 | 1011.0 |
| 20260906041803 | 71 | 0 | 0.0 | 0.0 | 0.00 | 0.00 | 0.00 | 67 | 1011.0 |
| 20260906041703 | 71 | 0 | 0.0 | 0.0 | 0.00 | 0.00 | 0.00 | 67 | 1011.0 |
| 20260906041603 | 71 | 0 | 0.0 | 0.0 | 0.00 | 0.00 | 0.00 | 68 | 1011.0 |
| 20260906041403 | 71 | 22 | 0.0 | 1.7 | 0.00 | 0.00 | 0.00 | 67 | 1011.0 |
| 20260906041303 | 71 | 23 | 0.0 | 1.7 | 0.00 | 0.00 | 0.00 | 67 | 1011.0 |
| 20260906041203 | 71 | 23 | 0.0 | 1.7 | 0.00 | 0.00 | 0.00 | 67 | 1011.0 |
| 20260906041103 | 71 | 22 | 0.0 | 1.7 | 0.00 | 0.00 | 0.00 | 67 | 1011.0 |
| 20260906041003 | 71 | 22 | 0.0 | 1.7 | 0.00 | 0.00 | 0.00 | 67 | 1011.0 |
| 20260906040904 | 71 | 22 | 0.0 | 1.7 | 0.00 | 0.00 | 0.00 | 67 | 1011.0 |
| 20260906040803 | 72 | 22 | 0.0 | 1.7 | 0.00 | 0.00 | 0.00 | 66 | 1011.0 |
| 20260906040603 | 72 | 22 | 0.0 | 1.7 | 0.00 | 0.00 | 0.00 | 66 | 1011.0 |
| 20260906040503 | 72 | 22 | 0.0 | 1.7 | 0.00 | 0.00 | 0.00 | 67 | 1011.0 |
| 20260906040403 | 72 | 22 | 0.0 | 0.9 | 0.00 | 0.00 | 0.00 | 66 | 1011.0 |
| 20260906040303 | 72 | 22 | 0.0 | 0.9 | 0.00 | 0.00 | 0.00 | 67 | 1011.0 |
| 20260906040203 | 72 | 22 | 0.0 | 0.9 | 0.00 | 0.00 | 0.00 | 67 | 1011.0 |
| 20260906040003 | 72 | 0 | 0.0 | 0.0 | 0.00 | 0.00 | 0.00 | 66 | 1011.0 |
| 20260906035903 | 72 | 0 | 0.0 | 0.0 | 0.00 | 0.00 | 0.00 | 66 | 1011.0 |
| 20260906035803 | 72 | 0 | 0.0 | 0.0 | 0.00 | 0.00 | 0.00 | 65 | 1011.0 |
| 20260906035703 | 72 | 22 | 0.0 | 2.6 | 0.00 | 0.00 | 0.00 | 65 | 1011.0 |
| 20260906035603 | 72 | 22 | 0.0 | 3.5 | 0.00 | 0.00 | 0.00 | 65 | 1011.0 |
| 20260906035503 | 72 | 22 | 0.0 | 3.5 | 0.00 | 0.00 | 0.00 | 65 | 1011.0 |
| 20260906035403 | 72 | 23 | 0.0 | 3.5 | 0.00 | 0.00 | 0.00 | 66 | 1011.0 |
| 20260906035306 | 72 | 23 | 0.0 | 3.5 | 0.00 | 0.00 | 0.00 | 65 | 1011.0 |
| 20260906035102 | 72 | 23 | 0.0 | 3.5 | 0.00 | 0.00 | 0.00 | 66 | 1011.0 |
| 20260906035003 | 72 | 23 | 0.0 | 3.5 | 0.00 | 0.00 | 0.00 | 67 | 1011.0 |
| 20260906034903 | 72 | 23 | 0.0 | 3.5 | 0.00 | 0.00 | 0.00 | 66 | 1011.0 |
| 20260906034704 | 72 | 23 | 0.9 | 3.5 | 0.00 | 0.00 | 0.00 | 66 | 1011.0 |
| 20260906034603 | 72 | 22 | 1.7 | 3.5 | 0.00 | 0.00 | 0.00 | 66 | 1011.0 |
| 20260906034503 | 72 | 22 | 1.7 | 3.5 | 0.00 | 0.00 | 0.00 | 65 | 1011.0 |
| 20260906034403 | 72 | 22 | 1.7 | 3.5 | 0.00 | 0.00 | 0.00 | 65 | 1011.0 |
| 20260906034303 | 72 | 22 | 0.0 | 1.7 | 0.00 | 0.00 | 0.00 | 65 | 1011.0 |
| 20260906034203 | 72 | 22 | 0.0 | 1.7 | 0.00 | 0.00 | 0.00 | 65 | 1011.0 |
| 20260906034103 | 72 | 22 | 0.0 | 1.7 | 0.00 | 0.00 | 0.00 | 66 | 1011.0 |
| 20260906034004 | 72 | 22 | 0.9 | 1.7 | 0.00 | 0.00 | 0.00 | 66 | 1011.0 |
| 20260906033903 | 72 | 22 | 0.0 | 1.7 | 0.00 | 0.00 | 0.00 | 65 | 1011.0 |
| 20260906033803 | 72 | 22 | 0.9 | 1.7 | 0.00 | 0.00 | 0.00 | 65 | 1011.0 |
| 20260906033703 | 72 | 22 | 0.0 | 1.7 | 0.00 | 0.00 | 0.00 | 65 | 1011.0 |
| 20260906033602 | 73 | 0 | 0.0 | 0.0 | 0.00 | 0.00 | 0.00 | 65 | 1011.0 |
| 20260906033503 | 73 | 0 | 0.0 | 0.0 | 0.00 | 0.00 | 0.00 | 65 | 1011.0 |
| 20260906033403 | 73 | 0 | 0.0 | 0.0 | 0.00 | 0.00 | 0.00 | 63 | 1011.0 |
| 20260906033303 | 73 | 0 | 0.0 | 0.0 | 0.00 | 0.00 | 0.00 | 65 | 1011.0 |
| 20260906033203 | 73 | 0 | 0.0 | 0.0 | 0.00 | 0.00 | 0.00 | 65 | 1011.0 |
| 20260906033103 | 73 | 0 | 0.0 | 0.0 | 0.00 | 0.00 | 0.00 | 65 | 1011.0 |
| 20260906033004 | 73 | 0 | 0.0 | 0.0 | 0.00 | 0.00 | 0.00 | 63 | 1011.0 |
| 20260906032803 | 73 | 0 | 0.0 | 0.0 | 0.00 | 0.00 | 0.00 | 63 | 1011.0 |
| 20260906032603 | 73 | 0 | 0.0 | 0.0 | 0.00 | 0.00 | 0.00 | 62 | 1011.0 |
| 20260906032203 | 73 | 22 | 0.0 | 2.6 | 0.00 | 0.00 | 0.00 | 61 | 1011.0 |
| 20260906032103 | 73 | 23 | 0.0 | 2.6 | 0.00 | 0.00 | 0.00 | 60 | 1011.0 |
| 20260906031903 | 74 | 23 | 2.6 | 2.6 | 0.00 | 0.00 | 0.00 | 61 | 1011.0 |
| 20260906031803 | 74 | 22 | 2.6 | 2.6 | 0.00 | 0.00 | 0.00 | 61 | 1011.0 |
| 20260906031704 | 74 | 22 | 0.0 | 2.6 | 0.00 | 0.00 | 0.00 | 61 | 1011.0 |
| 20260906031603 | 74 | 23 | 0.0 | 2.6 | 0.00 | 0.00 | 0.00 | 61 | 1011.0 |
| 20260906031503 | 74 | 28 | 1.7 | 2.6 | 0.00 | 0.00 | 0.00 | 60 | 1011.0 |
| 20260906031403 | 74 | 32 | 0.0 | 2.6 | 0.00 | 0.00 | 0.00 | 59 | 1011.0 |
| 20260906031303 | 74 | 32 | 0.0 | 2.6 | 0.00 | 0.00 | 0.00 | 59 | 1011.0 |
| 20260906031203 | 74 | 32 | 0.0 | 2.6 | 0.00 | 0.00 | 0.00 | 60 | 1011.0 |
| 20260906031103 | 74 | 32 | 0.9 | 2.6 | 0.00 | 0.00 | 0.00 | 60 | 1011.0 |
| 20260906031004 | 74 | 36 | 0.9 | 2.6 | 0.00 | 0.00 | 0.00 | 60 | 1011.0 |
| 20260906030903 | 74 | 36 | 0.9 | 2.6 | 0.00 | 0.00 | 0.00 | 60 | 1011.0 |
| 20260906030804 | 74 | 38 | 0.9 | 2.6 | 0.00 | 0.00 | 0.00 | 60 | 1011.0 |
| 20260906030703 | 74 | 41 | 0.9 | 2.6 | 0.00 | 0.00 | 0.00 | 59 | 1011.0 |
| 20260906030604 | 74 | 44 | 0.9 | 2.6 | 0.00 | 0.00 | 0.00 | 59 | 1011.0 |
| 20260906030503 | 74 | 54 | 0.9 | 1.7 | 0.00 | 0.00 | 0.00 | 60 | 1011.0 |
| 20260906030402 | 74 | 46 | 0.0 | 1.7 | 0.00 | 0.00 | 0.00 | 60 | 1011.0 |
| 20260906030303 | 74 | 46 | 0.0 | 1.7 | 0.00 | 0.00 | 0.00 | 60 | 1011.0 |
| 20260906030003 | 74 | 46 | 1.7 | 1.7 | 0.00 | 0.00 | 0.00 | 59 | 1011.0 |
| 20260906025903 | 74 | 46 | 1.7 | 1.7 | 0.00 | 0.00 | 0.00 | 59 | 1011.0 |
| 20260906025803 | 74 | 0 | 0.9 | 0.0 | 0.00 | 0.00 | 0.00 | 58 | 1011.0 |
| 20260906025703 | 74 | 0 | 0.9 | 0.0 | 0.00 | 0.00 | 0.00 | 59 | 1011.0 |
| 20260906025603 | 74 | 0 | 0.9 | 0.0 | 0.00 | 0.00 | 0.00 | 58 | 1011.0 |
| 20260906025503 | 74 | 0 | 0.9 | 0.0 | 0.00 | 0.00 | 0.00 | 59 | 1011.0 |
| 20260906025403 | 74 | 0 | 0.9 | 0.0 | 0.00 | 0.00 | 0.00 | 59 | 1009.9 |
| 20260906025306 | 74 | 0 | 0.9 | 0.0 | 0.00 | 0.00 | 0.00 | 58 | 1009.9 |
| 20260906025103 | 74 | 0 | 0.9 | 0.0 | 0.00 | 0.00 | 0.00 | 58 | 1009.9 |
| 20260906025003 | 74 | 0 | 0.0 | 0.0 | 0.00 | 0.00 | 0.00 | 58 | 1009.9 |
| 20260906024703 | 74 | 0 | 0.0 | 0.0 | 0.00 | 0.00 | 0.00 | 56 | 1009.9 |
| 20260906024603 | 74 | 0 | 0.0 | 0.0 | 0.00 | 0.00 | 0.00 | 56 | 1009.9 |
| 20260906024502 | 74 | 0 | 0.0 | 0.0 | 0.00 | 0.00 | 0.00 | 56 | 1009.9 |
| 20260906024303 | 75 | 0 | 0.0 | 0.0 | 0.00 | 0.00 | 0.00 | 56 | 1009.9 |
| 20260906024103 | 75 | 0 | 0.9 | 0.0 | 0.00 | 0.00 | 0.00 | 58 | 1009.9 |
| 20260906024003 | 75 | 0 | 0.0 | 0.0 | 0.00 | 0.00 | 0.00 | 56 | 1009.9 |
| 20260906023903 | 75 | 0 | 0.0 | 0.0 | 0.00 | 0.00 | 0.00 | 58 | 1011.0 |
| 20260906023703 | 75 | 45 | 0.0 | 2.6 | 0.00 | 0.00 | 0.00 | 55 | 1011.0 |
| 20260906023603 | 75 | 45 | 0.0 | 2.6 | 0.00 | 0.00 | 0.00 | 55 | 1011.0 |
| 20260906023503 | 75 | 45 | 0.0 | 2.6 | 0.00 | 0.00 | 0.00 | 55 | 1011.0 |
| 20260906023403 | 75 | 45 | 0.0 | 2.6 | 0.00 | 0.00 | 0.00 | 54 | 1011.0 |
| 20260906023303 | 75 | 37 | 0.0 | 2.6 | 0.00 | 0.00 | 0.00 | 55 | 1011.0 |
| 20260906023203 | 75 | 37 | 0.0 | 2.6 | 0.00 | 0.00 | 0.00 | 55 | 1011.0 |
| 20260906023103 | 75 | 37 | 0.0 | 2.6 | 0.00 | 0.00 | 0.00 | 54 | 1011.0 |
| 20260906023005 | 75 | 34 | 0.0 | 2.6 | 0.00 | 0.00 | 0.00 | 54 | 1011.0 |
| 20260906022903 | 75 | 34 | 1.7 | 2.6 | 0.00 | 0.00 | 0.00 | 53 | 1011.0 |
| 20260906022803 | 75 | 34 | 1.7 | 2.6 | 0.00 | 0.00 | 0.00 | 53 | 1011.0 |
| 20260906022603 | 75 | 30 | 0.0 | 2.6 | 0.00 | 0.00 | 0.00 | 53 | 1011.0 |
| 20260906022402 | 75 | 26 | 0.0 | 2.6 | 0.00 | 0.00 | 0.00 | 52 | 1009.9 |
| 20260906022103 | 75 | 35 | 0.9 | 2.6 | 0.00 | 0.00 | 0.00 | 52 | 1009.9 |
| 20260906021903 | 76 | 39 | 0.0 | 0.9 | 0.00 | 0.00 | 0.00 | 52 | 1009.9 |
| 20260906021803 | 76 | 40 | 0.0 | 0.9 | 0.00 | 0.00 | 0.00 | 52 | 1009.9 |
| 20260906021703 | 76 | 41 | 0.0 | 0.9 | 0.00 | 0.00 | 0.00 | 52 | 1009.9 |
| 20260906021503 | 76 | 42 | 0.9 | 2.6 | 0.00 | 0.00 | 0.00 | 52 | 1009.9 |
| 20260906021403 | 76 | 43 | 0.9 | 2.6 | 0.00 | 0.00 | 0.00 | 51 | 1009.9 |
| 20260906021303 | 76 | 46 | 1.7 | 2.6 | 0.00 | 0.00 | 0.00 | 51 | 1009.9 |
| 20260906021202 | 76 | 46 | 0.0 | 2.6 | 0.00 | 0.00 | 0.00 | 51 | 1009.9 |
| 20260906021103 | 76 | 42 | 0.0 | 2.6 | 0.00 | 0.00 | 0.00 | 51 | 1009.9 |
| 20260906021004 | 76 | 42 | 0.0 | 2.6 | 0.00 | 0.00 | 0.00 | 51 | 1009.9 |
| 20260906020903 | 76 | 42 | 1.7 | 2.6 | 0.00 | 0.00 | 0.00 | 51 | 1009.9 |
| 20260906020803 | 76 | 42 | 1.7 | 2.6 | 0.00 | 0.00 | 0.00 | 51 | 1009.9 |
| 20260906020703 | 76 | 42 | 1.7 | 2.6 | 0.00 | 0.00 | 0.00 | 51 | 1009.9 |
| 20260906020603 | 76 | 41 | 0.9 | 2.6 | 0.00 | 0.00 | 0.00 | 49 | 1009.9 |
| 20260906020504 | 76 | 41 | 0.0 | 2.6 | 0.00 | 0.00 | 0.00 | 49 | 1009.9 |
| 20260906020403 | 76 | 42 | 0.0 | 2.6 | 0.00 | 0.00 | 0.00 | 49 | 1009.9 |
| 20260906020304 | 76 | 42 | 0.0 | 2.6 | 0.00 | 0.00 | 0.00 | 49 | 1009.9 |
| 20260906020103 | 76 | 39 | 0.9 | 2.6 | 0.00 | 0.00 | 0.00 | 49 | 1009.9 |
| 20260906020004 | 76 | 40 | 0.9 | 2.6 | 0.00 | 0.00 | 0.00 | 49 | 1009.9 |
| 20260906015903 | 76 | 40 | 0.0 | 2.6 | 0.00 | 0.00 | 0.00 | 48 | 1009.9 |
| 20260906015703 | 77 | 39 | 0.0 | 2.6 | 0.00 | 0.00 | 0.00 | 48 | 1009.9 |
| 20260906015503 | 77 | 38 | 0.0 | 2.6 | 0.00 | 0.00 | 0.00 | 48 | 1009.9 |
| 20260906015403 | 77 | 41 | 0.0 | 3.5 | 0.00 | 0.00 | 0.00 | 47 | 1009.9 |
| 20260906015203 | 77 | 40 | 1.7 | 3.5 | 0.00 | 0.00 | 0.00 | 47 | 1009.9 |
| 20260906015103 | 77 | 46 | 0.9 | 3.5 | 0.00 | 0.00 | 0.00 | 46 | 1009.9 |
| 20260906015004 | 77 | 47 | 0.9 | 3.5 | 0.00 | 0.00 | 0.00 | 46 | 1009.9 |
| 20260906014903 | 78 | 55 | 0.0 | 3.5 | 0.00 | 0.00 | 0.00 | 46 | 1009.9 |
| 20260906014602 | 78 | 38 | 0.0 | 3.5 | 0.00 | 0.00 | 0.00 | 46 | 1009.9 |
| 20260906014503 | 78 | 38 | 1.7 | 3.5 | 0.00 | 0.00 | 0.00 | 46 | 1009.9 |
| 20260906014403 | 78 | 33 | 0.9 | 3.5 | 0.00 | 0.00 | 0.00 | 46 | 1009.9 |
| 20260906014303 | 78 | 33 | 0.9 | 3.5 | 0.00 | 0.00 | 0.00 | 46 | 1009.9 |
| 20260906014203 | 78 | 38 | 0.0 | 3.5 | 0.00 | 0.00 | 0.00 | 45 | 1009.9 |
| 20260906014003 | 78 | 38 | 0.0 | 3.5 | 0.00 | 0.00 | 0.00 | 45 | 1009.9 |
| 20260906013903 | 78 | 38 | 0.0 | 3.5 | 0.00 | 0.00 | 0.00 | 45 | 1009.9 |
| 20260906013804 | 78 | 35 | 0.0 | 3.5 | 0.00 | 0.00 | 0.00 | 45 | 1009.9 |
| 20260906013603 | 78 | 39 | 0.9 | 4.3 | 0.00 | 0.00 | 0.00 | 45 | 1009.9 |
| 20260906013504 | 79 | 42 | 0.0 | 4.3 | 0.00 | 0.00 | 0.00 | 45 | 1009.9 |
| 20260906013303 | 79 | 37 | 0.9 | 5.2 | 0.00 | 0.00 | 0.00 | 44 | 1009.9 |
| 20260906013103 | 79 | 35 | 0.0 | 5.2 | 0.00 | 0.00 | 0.00 | 44 | 1009.9 |
| 20260906012904 | 80 | 36 | 0.0 | 5.2 | 0.00 | 0.00 | 0.00 | 44 | 1009.9 |
| 20260906012703 | 80 | 36 | 2.6 | 5.2 | 0.00 | 0.00 | 0.00 | 42 | 1009.9 |
| 20260906012603 | 80 | 34 | 2.6 | 5.2 | 0.00 | 0.00 | 0.00 | 42 | 1009.9 |
| 20260906012503 | 80 | 31 | 2.6 | 5.2 | 0.00 | 0.00 | 0.00 | 42 | 1009.9 |
| 20260906012404 | 80 | 36 | 0.9 | 3.5 | 0.00 | 0.00 | 0.00 | 42 | 1009.9 |
| 20260906012306 | 80 | 40 | 0.9 | 3.5 | 0.00 | 0.00 | 0.00 | 42 | 1009.9 |
| 20260906012004 | 80 | 45 | 2.6 | 5.2 | 0.00 | 0.00 | 0.00 | 42 | 1009.9 |
| 20260906011903 | 80 | 45 | 1.7 | 5.2 | 0.00 | 0.00 | 0.00 | 42 | 1009.9 |
| 20260906011803 | 80 | 44 | 1.7 | 5.2 | 0.00 | 0.00 | 0.00 | 42 | 1009.9 |
| 20260906011604 | 81 | 43 | 1.7 | 5.2 | 0.00 | 0.00 | 0.00 | 40 | 1009.9 |
| 20260906011402 | 81 | 42 | 2.6 | 5.2 | 0.00 | 0.00 | 0.00 | 40 | 1009.9 |
| 20260906011303 | 81 | 42 | 3.5 | 5.2 | 0.00 | 0.00 | 0.00 | 40 | 1009.9 |
| 20260906011203 | 81 | 39 | 3.5 | 5.2 | 0.00 | 0.00 | 0.00 | 40 | 1009.9 |
| 20260906011004 | 81 | 32 | 2.6 | 3.5 | 0.00 | 0.00 | 0.00 | 40 | 1009.9 |
| 20260906010903 | 82 | 28 | 1.7 | 3.5 | 0.00 | 0.00 | 0.00 | 40 | 1009.9 |
| 20260906010803 | 82 | 28 | 1.7 | 3.5 | 0.00 | 0.00 | 0.00 | 40 | 1009.9 |
| 20260906010703 | 82 | 30 | 1.7 | 3.5 | 0.00 | 0.00 | 0.00 | 40 | 1009.9 |
| 20260906010603 | 82 | 33 | 1.7 | 3.5 | 0.00 | 0.00 | 0.00 | 40 | 1009.9 |
| 20260906010503 | 82 | 36 | 1.7 | 3.5 | 0.00 | 0.00 | 0.00 | 40 | 1009.9 |
| 20260906010403 | 82 | 36 | 1.7 | 4.3 | 0.00 | 0.00 | 0.00 | 40 | 1009.9 |
| 20260906010303 | 82 | 34 | 2.6 | 4.3 | 0.00 | 0.00 | 0.00 | 39 | 1009.9 |
| 20260906010203 | 82 | 34 | 0.9 | 4.3 | 0.00 | 0.00 | 0.00 | 39 | 1009.9 |
| 20260906010103 | 82 | 38 | 0.9 | 4.3 | 0.00 | 0.00 | 0.00 | 39 | 1009.9 |
| 20260906010004 | 82 | 38 | 0.9 | 4.3 | 0.00 | 0.00 | 0.00 | 39 | 1009.9 |
| 20260906005903 | 82 | 45 | 2.6 | 4.3 | 0.00 | 0.00 | 0.00 | 39 | 1009.9 |
| 20260906005803 | 82 | 45 | 2.6 | 4.3 | 0.00 | 0.00 | 0.00 | 39 | 1009.9 |
| 20260906005703 | 83 | 41 | 3.5 | 4.3 | 0.00 | 0.00 | 0.00 | 39 | 1009.9 |
| 20260906005603 | 83 | 41 | 3.5 | 4.3 | 0.00 | 0.00 | 0.00 | 39 | 1009.9 |
| 20260906005403 | 83 | 41 | 2.6 | 3.5 | 0.00 | 0.00 | 0.00 | 39 | 1009.9 |
| 20260906005306 | 83 | 38 | 0.0 | 3.5 | 0.00 | 0.00 | 0.00 | 39 | 1009.9 |
| 20260906005203 | 83 | 38 | 0.0 | 3.5 | 0.00 | 0.00 | 0.00 | 39 | 1009.9 |
| 20260906005103 | 83 | 38 | 2.6 | 3.5 | 0.00 | 0.00 | 0.00 | 39 | 1009.9 |
| 20260906005004 | 83 | 38 | 1.7 | 3.5 | 0.00 | 0.00 | 0.00 | 39 | 1009.9 |
| 20260906004903 | 83 | 39 | 2.6 | 2.6 | 0.00 | 0.00 | 0.00 | 39 | 1009.9 |
| 20260906004803 | 83 | 35 | 2.6 | 3.5 | 0.00 | 0.00 | 0.00 | 39 | 1009.9 |
| 20260906004703 | 83 | 30 | 1.7 | 3.5 | 0.00 | 0.00 | 0.00 | 39 | 1009.9 |
| 20260906004603 | 83 | 30 | 1.7 | 3.5 | 0.00 | 0.00 | 0.00 | 38 | 1009.9 |
| 20260906004503 | 83 | 30 | 1.7 | 3.5 | 0.00 | 0.00 | 0.00 | 38 | 1009.9 |
| 20260906004303 | 84 | 25 | 2.6 | 4.3 | 0.00 | 0.00 | 0.00 | 38 | 1009.9 |
| 20260906004203 | 84 | 25 | 2.6 | 4.3 | 0.00 | 0.00 | 0.00 | 38 | 1009.9 |
| 20260906004103 | 84 | 23 | 2.6 | 4.3 | 0.00 | 0.00 | 0.00 | 38 | 1009.9 |
| 20260906004004 | 84 | 20 | 2.6 | 4.3 | 0.00 | 0.00 | 0.00 | 38 | 1009.9 |
| 20260906003903 | 84 | 20 | 3.5 | 4.3 | 0.00 | 0.00 | 0.00 | 38 | 1009.9 |
| 20260906003803 | 84 | 22 | 3.5 | 4.3 | 0.00 | 0.00 | 0.00 | 37 | 1009.9 |
| 20260906003703 | 84 | 23 | 2.6 | 4.3 | 0.00 | 0.00 | 0.00 | 37 | 1009.9 |
| 20260906003503 | 84 | 25 | 3.5 | 4.3 | 0.00 | 0.00 | 0.00 | 37 | 1009.9 |
| 20260906003403 | 84 | 31 | 0.0 | 4.3 | 0.00 | 0.00 | 0.00 | 37 | 1009.9 |
| 20260906003303 | 84 | 31 | 0.0 | 4.3 | 0.00 | 0.00 | 0.00 | 37 | 1009.9 |
| 20260906003203 | 84 | 31 | 0.0 | 4.3 | 0.00 | 0.00 | 0.00 | 37 | 1009.9 |
| 20260906003103 | 84 | 31 | 0.0 | 4.3 | 0.00 | 0.00 | 0.00 | 37 | 1009.9 |
| 20260906002903 | 84 | 24 | 0.9 | 4.3 | 0.00 | 0.00 | 0.00 | 37 | 1009.9 |
| 20260906002803 | 84 | 24 | 0.9 | 4.3 | 0.00 | 0.00 | 0.00 | 37 | 1009.9 |
| 20260906002703 | 84 | 22 | 0.0 | 4.3 | 0.00 | 0.00 | 0.00 | 37 | 1009.9 |
| 20260906002603 | 85 | 22 | 2.6 | 4.3 | 0.00 | 0.00 | 0.00 | 36 | 1009.9 |
| 20260906002503 | 85 | 14 | 3.5 | 4.3 | 0.00 | 0.00 | 0.00 | 36 | 1009.9 |
| 20260906002403 | 85 | 12 | 1.7 | 4.3 | 0.00 | 0.00 | 0.00 | 36 | 1009.9 |
| 20260906002305 | 85 | 356 | 0.0 | 3.5 | 0.00 | 0.00 | 0.00 | 36 | 1009.9 |
| 20260906002203 | 85 | 358 | 0.0 | 3.5 | 0.00 | 0.00 | 0.00 | 36 | 1009.9 |
| 20260906002103 | 85 | 358 | 2.6 | 4.3 | 0.00 | 0.00 | 0.00 | 37 | 1009.9 |
| 20260906002003 | 85 | 3 | 2.6 | 4.3 | 0.00 | 0.00 | 0.00 | 37 | 1009.9 |
| 20260906001903 | 85 | 12 | 3.5 | 4.3 | 0.00 | 0.00 | 0.00 | 36 | 1009.9 |
| 20260906001803 | 85 | 12 | 3.5 | 4.3 | 0.00 | 0.00 | 0.00 | 36 | 1009.9 |
| 20260906001703 | 85 | 14 | 2.6 | 4.3 | 0.00 | 0.00 | 0.00 | 36 | 1009.9 |
| 20260906001603 | 85 | 14 | 2.6 | 4.3 | 0.00 | 0.00 | 0.00 | 36 | 1009.9 |
| 20260906001504 | 85 | 15 | 2.6 | 4.3 | 0.00 | 0.00 | 0.00 | 36 | 1009.9 |
| 20260906001302 | 85 | 32 | 3.5 | 5.2 | 0.00 | 0.00 | 0.00 | 36 | 1009.9 |
| 20260906001203 | 85 | 30 | 4.3 | 6.1 | 0.00 | 0.00 | 0.00 | 36 | 1009.9 |
| 20260906001104 | 85 | 29 | 3.5 | 6.1 | 0.00 | 0.00 | 0.00 | 36 | 1009.9 |
| 20260906001005 | 85 | 28 | 3.5 | 6.1 | 0.00 | 0.00 | 0.00 | 36 | 1009.9 |
| 20260906000903 | 85 | 27 | 4.3 | 6.1 | 0.00 | 0.00 | 0.00 | 36 | 1009.9 |
| 20260906000803 | 85 | 27 | 1.7 | 6.1 | 0.00 | 0.00 | 0.00 | 36 | 1009.9 |
| 20260906000703 | 85 | 26 | 1.7 | 6.1 | 0.00 | 0.00 | 0.00 | 36 | 1009.9 |
| 20260906000602 | 85 | 25 | 0.9 | 6.1 | 0.00 | 0.00 | 0.00 | 36 | 1009.9 |
| 20260906000503 | 85 | 24 | 0.9 | 6.1 | 0.00 | 0.00 | 0.00 | 36 | 1009.9 |
| 20260906000403 | 86 | 25 | 4.3 | 6.1 | 0.00 | 0.00 | 0.00 | 36 | 1009.9 |
| 20260906000304 | 86 | 18 | 4.3 | 6.1 | 0.00 | 0.00 | 0.00 | 36 | 1009.9 |
| 20260906000204 | 86 | 13 | 0.0 | 5.2 | 0.00 | 0.00 | 0.00 | 36 | 1009.9 |
| 20260906000005 | 86 | 16 | 0.9 | 4.3 | 0.00 | 0.00 | 0.00 | 36 | 1009.9 |
| 20260905235903 | 86 | 15 | 3.5 | 4.3 | 0.00 | 0.00 | 0.00 | 36 | 1009.9 |
| 20260905235703 | 86 | 15 | 1.7 | 4.3 | 0.00 | 0.00 | 0.00 | 36 | 1009.9 |
| 20260905235404 | 86 | 24 | 3.5 | 4.3 | 0.00 | 0.00 | 0.00 | 34 | 1008.8 |
| 20260905235204 | 86 | 29 | 4.3 | 4.3 | 0.00 | 0.00 | 0.00 | 34 | 1008.8 |
| 20260905235103 | 86 | 27 | 1.7 | 4.3 | 0.00 | 0.00 | 0.00 | 34 | 1008.8 |
| 20260905235004 | 86 | 26 | 1.7 | 4.3 | 0.00 | 0.00 | 0.00 | 34 | 1008.8 |
| 20260905234903 | 86 | 28 | 2.6 | 4.3 | 0.00 | 0.00 | 0.00 | 34 | 1008.8 |
| 20260905234803 | 86 | 30 | 2.6 | 4.3 | 0.00 | 0.00 | 0.00 | 34 | 1008.8 |
| 20260905234703 | 86 | 32 | 3.5 | 4.3 | 0.00 | 0.00 | 0.00 | 34 | 1008.8 |
| 20260905234603 | 86 | 32 | 3.5 | 4.3 | 0.00 | 0.00 | 0.00 | 34 | 1008.8 |
| 20260905234504 | 86 | 27 | 0.0 | 4.3 | 0.00 | 0.00 | 0.00 | 34 | 1008.8 |
| 20260905234403 | 86 | 26 | 2.6 | 4.3 | 0.00 | 0.00 | 0.00 | 34 | 1008.8 |
| 20260905234303 | 86 | 25 | 2.6 | 4.3 | 0.00 | 0.00 | 0.00 | 34 | 1008.8 |
| 20260905234203 | 86 | 22 | 3.5 | 5.2 | 0.00 | 0.00 | 0.00 | 34 | 1008.8 |
| 20260905234103 | 87 | 24 | 0.9 | 5.2 | 0.00 | 0.00 | 0.00 | 34 | 1008.8 |
| 20260905234004 | 87 | 26 | 2.6 | 5.2 | 0.00 | 0.00 | 0.00 | 34 | 1008.8 |
| 20260905233903 | 87 | 26 | 2.6 | 6.1 | 0.00 | 0.00 | 0.00 | 34 | 1009.9 |
| 20260905233803 | 86 | 28 | 1.7 | 6.1 | 0.00 | 0.00 | 0.00 | 34 | 1009.9 |
| 20260905233603 | 86 | 22 | 1.7 | 6.1 | 0.00 | 0.00 | 0.00 | 34 | 1009.9 |
| 20260905233503 | 86 | 20 | 3.5 | 6.1 | 0.00 | 0.00 | 0.00 | 34 | 1009.9 |
| 20260905233303 | 87 | 22 | 4.3 | 6.1 | 0.00 | 0.00 | 0.00 | 34 | 1009.9 |
| 20260905233203 | 87 | 24 | 4.3 | 6.1 | 0.00 | 0.00 | 0.00 | 34 | 1009.9 |
| 20260905233103 | 87 | 23 | 3.5 | 6.1 | 0.00 | 0.00 | 0.00 | 34 | 1009.9 |
| 20260905233003 | 87 | 21 | 3.5 | 6.1 | 0.00 | 0.00 | 0.00 | 34 | 1009.9 |
| 20260905232903 | 87 | 16 | 1.7 | 4.3 | 0.00 | 0.00 | 0.00 | 34 | 1009.9 |
| 20260905232803 | 87 | 15 | 0.0 | 4.3 | 0.00 | 0.00 | 0.00 | 34 | 1009.9 |
| 20260905232703 | 87 | 19 | 3.5 | 4.3 | 0.00 | 0.00 | 0.00 | 34 | 1009.9 |
| 20260905232603 | 87 | 21 | 3.5 | 4.3 | 0.00 | 0.00 | 0.00 | 34 | 1009.9 |
| 20260905232403 | 87 | 15 | 0.0 | 4.3 | 0.00 | 0.00 | 0.00 | 34 | 1009.9 |
| 20260905232203 | 87 | 15 | 0.9 | 4.3 | 0.00 | 0.00 | 0.00 | 34 | 1009.9 |
| 20260905232103 | 87 | 15 | 3.5 | 4.3 | 0.00 | 0.00 | 0.00 | 34 | 1009.9 |
| 20260905232003 | 87 | 15 | 3.5 | 4.3 | 0.00 | 0.00 | 0.00 | 34 | 1009.9 |
| 20260905231903 | 87 | 16 | 3.5 | 4.3 | 0.00 | 0.00 | 0.00 | 34 | 1009.9 |
| 20260905231803 | 88 | 1 | 4.3 | 6.1 | 0.00 | 0.00 | 0.00 | 34 | 1009.9 |
| 20260905231603 | 88 | 356 | 0.9 | 6.1 | 0.00 | 0.00 | 0.00 | 34 | 1009.9 |
| 20260905231504 | 88 | 5 | 0.9 | 6.1 | 0.00 | 0.00 | 0.00 | 34 | 1009.9 |
| 20260905231403 | 87 | 8 | 0.9 | 6.1 | 0.00 | 0.00 | 0.00 | 34 | 1009.9 |
| 20260905231303 | 88 | 6 | 2.6 | 6.1 | 0.00 | 0.00 | 0.00 | 34 | 1009.9 |
| 20260905231203 | 88 | 7 | 0.0 | 6.1 | 0.00 | 0.00 | 0.00 | 34 | 1009.9 |
| 20260905231103 | 88 | 4 | 1.7 | 6.1 | 0.00 | 0.00 | 0.00 | 34 | 1009.9 |
| 20260905231004 | 87 | 4 | 1.7 | 6.1 | 0.00 | 0.00 | 0.00 | 34 | 1009.9 |
| 20260905230903 | 87 | 5 | 3.5 | 6.1 | 0.00 | 0.00 | 0.00 | 33 | 1009.9 |
| 20260905230803 | 87 | 11 | 1.7 | 6.1 | 0.00 | 0.00 | 0.00 | 33 | 1009.9 |
| 20260905230603 | 87 | 11 | 5.2 | 6.1 | 0.00 | 0.00 | 0.00 | 33 | 1009.9 |
| 20260905230503 | 87 | 12 | 2.6 | 6.1 | 0.00 | 0.00 | 0.00 | 33 | 1009.9 |
| 20260905230303 | 88 | 15 | 3.5 | 6.1 | 0.00 | 0.00 | 0.00 | 33 | 1009.9 |
| 20260905230203 | 88 | 16 | 3.5 | 6.1 | 0.00 | 0.00 | 0.00 | 33 | 1009.9 |
| 20260905230103 | 88 | 25 | 3.5 | 6.1 | 0.00 | 0.00 | 0.00 | 34 | 1009.9 |
| 20260905230003 | 88 | 25 | 0.9 | 4.3 | 0.00 | 0.00 | 0.00 | 33 | 1009.9 |
| 20260905225903 | 88 | 24 | 0.0 | 7.0 | 0.00 | 0.00 | 0.00 | 33 | 1009.9 |
| 20260905225803 | 88 | 23 | 0.0 | 7.0 | 0.00 | 0.00 | 0.00 | 33 | 1009.9 |
| 20260905225703 | 88 | 20 | 3.5 | 7.0 | 0.00 | 0.00 | 0.00 | 33 | 1009.9 |
| 20260905225603 | 87 | 21 | 0.0 | 7.0 | 0.00 | 0.00 | 0.00 | 34 | 1009.9 |
| 20260905225504 | 87 | 20 | 0.0 | 7.0 | 0.00 | 0.00 | 0.00 | 34 | 1009.9 |
| 20260905225403 | 87 | 19 | 2.6 | 7.0 | 0.00 | 0.00 | 0.00 | 33 | 1009.9 |
| 20260905225305 | 87 | 19 | 1.7 | 7.0 | 0.00 | 0.00 | 0.00 | 33 | 1009.9 |
| 20260905225203 | 88 | 19 | 3.5 | 7.0 | 0.00 | 0.00 | 0.00 | 34 | 1009.9 |
| 20260905225104 | 88 | 19 | 3.5 | 7.0 | 0.00 | 0.00 | 0.00 | 34 | 1009.9 |
| 20260905225003 | 87 | 18 | 3.5 | 7.0 | 0.00 | 0.00 | 0.00 | 34 | 1009.9 |
| 20260905224903 | 87 | 14 | 4.3 | 7.0 | 0.00 | 0.00 | 0.00 | 34 | 1009.9 |
| 20260905224803 | 87 | 11 | 4.3 | 5.2 | 0.00 | 0.00 | 0.00 | 34 | 1009.9 |
| 20260905224703 | 87 | 4 | 3.5 | 7.8 | 0.00 | 0.00 | 0.00 | 34 | 1009.9 |
| 20260905224602 | 87 | 1 | 3.5 | 7.8 | 0.00 | 0.00 | 0.00 | 33 | 1009.9 |
| 20260905224503 | 87 | 353 | 3.5 | 7.8 | 0.00 | 0.00 | 0.00 | 33 | 1009.9 |
| 20260905224404 | 87 | 349 | 2.6 | 7.8 | 0.00 | 0.00 | 0.00 | 33 | 1009.9 |
| 20260905224203 | 87 | 343 | 1.7 | 7.8 | 0.00 | 0.00 | 0.00 | 33 | 1009.9 |
| 20260905224103 | 87 | 343 | 1.7 | 7.8 | 0.00 | 0.00 | 0.00 | 33 | 1009.9 |
| 20260905224004 | 87 | 345 | 2.6 | 7.8 | 0.00 | 0.00 | 0.00 | 34 | 1009.9 |
| 20260905223903 | 87 | 350 | 5.2 | 7.8 | 0.00 | 0.00 | 0.00 | 34 | 1009.9 |
| 20260905223803 | 87 | 352 | 2.6 | 7.8 | 0.00 | 0.00 | 0.00 | 34 | 1009.9 |
| 20260905223703 | 87 | 355 | 2.6 | 5.2 | 0.00 | 0.00 | 0.00 | 34 | 1009.9 |
| 20260905223603 | 87 | 357 | 3.5 | 5.2 | 0.00 | 0.00 | 0.00 | 34 | 1009.9 |
| 20260905223503 | 87 | 4 | 3.5 | 5.2 | 0.00 | 0.00 | 0.00 | 34 | 1009.9 |
| 20260905223403 | 87 | 7 | 3.5 | 6.1 | 0.00 | 0.00 | 0.00 | 34 | 1009.9 |
| 20260905223303 | 87 | 10 | 2.6 | 6.1 | 0.00 | 0.00 | 0.00 | 34 | 1009.9 |
| 20260905223203 | 87 | 10 | 2.6 | 6.1 | 0.00 | 0.00 | 0.00 | 34 | 1009.9 |
| 20260905223103 | 87 | 13 | 4.3 | 6.1 | 0.00 | 0.00 | 0.00 | 34 | 1009.9 |
| 20260905223004 | 87 | 13 | 4.3 | 6.1 | 0.00 | 0.00 | 0.00 | 34 | 1009.9 |
| 20260905222903 | 87 | 12 | 4.3 | 6.1 | 0.00 | 0.00 | 0.00 | 34 | 1009.9 |
| 20260905222803 | 87 | 16 | 2.6 | 6.1 | 0.00 | 0.00 | 0.00 | 34 | 1009.9 |
| 20260905222703 | 87 | 18 | 2.6 | 6.1 | 0.00 | 0.00 | 0.00 | 34 | 1009.9 |
| 20260905222603 | 87 | 22 | 4.3 | 6.1 | 0.00 | 0.00 | 0.00 | 34 | 1009.9 |
| 20260905222503 | 87 | 25 | 5.2 | 6.1 | 0.00 | 0.00 | 0.00 | 34 | 1009.9 |
| 20260905222403 | 87 | 29 | 2.6 | 5.2 | 0.00 | 0.00 | 0.00 | 34 | 1009.9 |
| 20260905222306 | 87 | 30 | 2.6 | 5.2 | 0.00 | 0.00 | 0.00 | 34 | 1009.9 |
| 20260905222203 | 87 | 28 | 2.6 | 6.1 | 0.00 | 0.00 | 0.00 | 34 | 1009.9 |
| 20260905222104 | 87 | 27 | 2.6 | 6.1 | 0.00 | 0.00 | 0.00 | 34 | 1009.9 |
| 20260905222004 | 87 | 27 | 1.7 | 7.0 | 0.00 | 0.00 | 0.00 | 34 | 1009.9 |
| 20260905221903 | 87 | 27 | 2.6 | 7.0 | 0.00 | 0.00 | 0.00 | 34 | 1009.9 |
| 20260905221803 | 87 | 27 | 3.5 | 7.0 | 0.00 | 0.00 | 0.00 | 34 | 1009.9 |
| 20260905221703 | 87 | 24 | 3.5 | 7.0 | 0.00 | 0.00 | 0.00 | 34 | 1009.9 |
| 20260905221604 | 86 | 21 | 3.5 | 7.0 | 0.00 | 0.00 | 0.00 | 34 | 1009.9 |
| 20260905221404 | 86 | 15 | 4.3 | 7.0 | 0.00 | 0.00 | 0.00 | 34 | 1009.9 |
| 20260905221303 | 86 | 13 | 5.2 | 7.0 | 0.00 | 0.00 | 0.00 | 34 | 1009.9 |
| 20260905221203 | 87 | 17 | 4.3 | 7.0 | 0.00 | 0.00 | 0.00 | 34 | 1009.9 |
| 20260905221103 | 87 | 17 | 3.5 | 7.0 | 0.00 | 0.00 | 0.00 | 34 | 1009.9 |
| 20260905220903 | 86 | 15 | 4.3 | 6.1 | 0.00 | 0.00 | 0.00 | 34 | 1009.9 |
| 20260905220803 | 87 | 15 | 3.5 | 6.1 | 0.00 | 0.00 | 0.00 | 34 | 1009.9 |
| 20260905220703 | 87 | 14 | 4.3 | 7.0 | 0.00 | 0.00 | 0.00 | 34 | 1009.9 |
| 20260905220603 | 87 | 13 | 4.3 | 7.0 | 0.00 | 0.00 | 0.00 | 34 | 1009.9 |